Time,TemperatureF,DewpointF,PressureIn,WindDirection,WindDirectionDegrees,WindSpeedMPH,WindSpeedGustMPH,Humidity,HourlyPrecipIn,Conditions,Clouds,dailyrainin,SolarRadiationWatts/m^2,SoftwareType,DateUTC
2013-09-16 00:00:00,67.5,60.0,29.93,SSE,164,0.0,0.0,77,0.00,,,0.00,0,Wunderground v.1.15,2013-09-16 04:00:00,
2013-09-16 00:01:00,67.6,60.1,29.93,SSE,164,0.0,0.0,77,0.00,,,0.00,0,Wunderground v.1.15,2013-09-16 04:01:00,
2013-09-16 00:02:00,67.6,60.1,29.93,SSE,164,0.0,0.0,77,0.00,,,0.00,0,Wunderground v.1.15,2013-09-16 04:02:00,
2013-09-16 00:06:00,67.5,60.0,29.93,SSE,164,0.0,0.0,77,0.00,,,0.00,0,Wunderground v.1.15,2013-09-16 04:06:00,
2013-09-16 00:07:00,67.5,60.0,29.93,SSE,164,0.0,0.0,77,0.00,,,0.00,0,Wunderground v.1.15,2013-09-16 04:07:00,
2013-09-16 00:09:00,67.5,60.4,29.93,SSE,164,0.0,0.0,78,0.00,,,0.00,0,Wunderground v.1.15,2013-09-16 04:09:00,
2013-09-16 00:10:00,67.5,60.0,29.93,SSE,164,0.0,0.0,77,0.00,,,0.00,0,Wunderground v.1.15,2013-09-16 04:10:00,
2013-09-16 00:11:00,67.5,60.0,29.93,SSE,164,0.0,0.0,77,0.00,,,0.00,0,Wunderground v.1.15,2013-09-16 04:11:00,
2013-09-16 00:12:00,67.5,60.0,29.93,SSE,164,0.0,0.0,77,0.00,,,0.00,0,Wunderground v.1.15,2013-09-16 04:12:00,
2013-09-16 00:13:00,67.5,60.0,29.93,SSE,164,0.0,0.0,77,0.00,,,0.00,0,Wunderground v.1.15,2013-09-16 04:13:00,
2013-09-16 00:14:00,67.6,60.1,29.93,SSE,164,0.0,0.0,77,0.00,,,0.00,0,Wunderground v.1.15,2013-09-16 04:14:00,
2013-09-16 00:16:00,67.6,60.5,29.93,SSE,164,0.0,0.0,78,0.00,,,0.00,0,Wunderground v.1.15,2013-09-16 04:16:00,
2013-09-16 00:18:00,67.6,60.5,29.93,SSE,164,0.0,0.0,78,0.00,,,0.00,0,Wunderground v.1.15,2013-09-16 04:18:00,
2013-09-16 00:20:00,67.5,60.0,29.93,SSE,164,0.0,0.0,77,0.00,,,0.00,0,Wunderground v.1.15,2013-09-16 04:20:00,
2013-09-16 00:21:00,67.5,60.0,29.93,SSE,164,0.0,0.0,77,0.00,,,0.00,0,Wunderground v.1.15,2013-09-16 04:21:00,
2013-09-16 00:22:00,67.5,60.0,29.93,SSE,164,0.0,0.0,77,0.00,,,0.00,0,Wunderground v.1.15,2013-09-16 04:22:00,
2013-09-16 00:27:00,67.5,60.0,29.93,SSE,164,0.0,0.0,77,0.00,,,0.00,0,Wunderground v.1.15,2013-09-16 04:27:00,
2013-09-16 00:28:00,67.5,60.0,29.93,SSE,157,0.0,0.0,77,0.00,,,0.00,0,Wunderground v.1.15,2013-09-16 04:28:00,
2013-09-16 00:29:00,67.5,60.0,29.93,SSE,157,0.0,0.0,77,0.00,,,0.00,0,Wunderground v.1.15,2013-09-16 04:29:00,
2013-09-16 00:30:00,67.5,60.0,29.93,SSE,158,0.0,0.0,77,0.00,,,0.00,0,Wunderground v.1.15,2013-09-16 04:30:00,
2013-09-16 00:31:00,67.5,60.0,29.93,SSE,158,0.0,0.0,77,0.00,,,0.00,0,Wunderground v.1.15,2013-09-16 04:31:00,
2013-09-16 00:35:00,67.5,60.0,29.93,SSE,158,0.0,0.0,77,0.00,,,0.00,0,Wunderground v.1.15,2013-09-16 04:35:00,
2013-09-16 00:37:00,67.5,60.0,29.93,SSE,158,0.0,0.0,77,0.00,,,0.00,0,Wunderground v.1.15,2013-09-16 04:37:00,
2013-09-16 00:38:00,67.5,60.0,29.93,SSE,158,0.0,0.0,77,0.00,,,0.00,0,Wunderground v.1.15,2013-09-16 04:38:00,
2013-09-16 00:39:00,67.5,60.0,29.93,SSE,158,0.0,0.0,77,0.00,,,0.00,0,Wunderground v.1.15,2013-09-16 04:39:00,
2013-09-16 00:41:00,67.4,59.9,29.93,SSE,158,0.0,0.0,77,0.00,,,0.00,0,Wunderground v.1.15,2013-09-16 04:41:00,
2013-09-16 00:42:00,67.5,60.0,29.93,SSE,158,0.0,0.0,77,0.00,,,0.00,0,Wunderground v.1.15,2013-09-16 04:42:00,
2013-09-16 00:43:00,67.4,59.9,29.93,SSE,158,0.0,0.0,77,0.00,,,0.00,0,Wunderground v.1.15,2013-09-16 04:43:00,
2013-09-16 00:44:00,67.4,59.9,29.93,SSE,158,0.0,0.0,77,0.00,,,0.00,0,Wunderground v.1.15,2013-09-16 04:44:00,
2013-09-16 00:47:00,67.4,59.9,29.92,ESE,118,0.0,0.0,77,0.00,,,0.00,0,Wunderground v.1.15,2013-09-16 04:47:00,
2013-09-16 00:49:00,67.4,59.9,29.93,ESE,118,0.0,0.0,77,0.00,,,0.00,0,Wunderground v.1.15,2013-09-16 04:49:00,
2013-09-16 00:51:00,67.4,59.9,29.92,ESE,118,0.0,0.0,77,0.00,,,0.00,0,Wunderground v.1.15,2013-09-16 04:51:00,
2013-09-16 00:52:00,67.4,59.9,29.93,ESE,118,0.0,0.0,77,0.00,,,0.00,0,Wunderground v.1.15,2013-09-16 04:52:00,
2013-09-16 00:54:00,67.3,59.8,29.93,ESE,118,0.0,0.0,77,0.00,,,0.00,0,Wunderground v.1.15,2013-09-16 04:54:00,
2013-09-16 00:56:00,67.3,59.8,29.93,ESE,118,0.0,0.0,77,0.00,,,0.00,0,Wunderground v.1.15,2013-09-16 04:56:00,
2013-09-16 00:57:00,67.3,59.8,29.93,ESE,118,0.0,0.0,77,0.00,,,0.00,0,Wunderground v.1.15,2013-09-16 04:57:00,
2013-09-16 00:58:00,67.3,59.8,29.92,ESE,118,0.0,0.0,77,0.00,,,0.00,0,Wunderground v.1.15,2013-09-16 04:58:00,
2013-09-16 00:59:00,67.2,59.7,29.92,ESE,118,0.0,0.0,77,0.00,,,0.00,0,Wunderground v.1.15,2013-09-16 04:59:00,
2013-09-16 01:01:00,67.2,59.7,29.93,ESE,118,0.0,0.0,77,0.00,,,0.00,0,Wunderground v.1.15,2013-09-16 05:01:00,
2013-09-16 01:02:00,67.2,59.7,29.93,ESE,118,0.0,0.0,77,0.00,,,0.00,0,Wunderground v.1.15,2013-09-16 05:02:00,
2013-09-16 01:04:00,67.2,59.7,29.93,ESE,118,0.0,0.0,77,0.00,,,0.00,0,Wunderground v.1.15,2013-09-16 05:04:00,
2013-09-16 01:06:00,67.1,60.0,29.92,ESE,118,0.0,0.0,78,0.00,,,0.00,0,Wunderground v.1.15,2013-09-16 05:06:00,
2013-09-16 01:07:00,67.1,60.0,29.93,ESE,118,0.0,0.0,78,0.00,,,0.00,0,Wunderground v.1.15,2013-09-16 05:07:00,
2013-09-16 01:08:00,67.1,60.0,29.93,ESE,121,0.0,0.0,78,0.00,,,0.00,0,Wunderground v.1.15,2013-09-16 05:08:00,
2013-09-16 01:09:00,67.0,59.9,29.92,ESE,121,0.0,0.0,78,0.00,,,0.00,0,Wunderground v.1.15,2013-09-16 05:09:00,
2013-09-16 01:12:00,66.9,59.8,29.92,ESE,121,0.0,0.0,78,0.00,,,0.00,0,Wunderground v.1.15,2013-09-16 05:12:00,
2013-09-16 01:13:00,66.9,59.8,29.92,ESE,121,0.0,0.0,78,0.00,,,0.00,0,Wunderground v.1.15,2013-09-16 05:13:00,
2013-09-16 01:16:00,66.8,59.7,29.92,ESE,121,0.0,0.0,78,0.00,,,0.00,0,Wunderground v.1.15,2013-09-16 05:16:00,
2013-09-16 01:17:00,66.8,59.7,29.92,ESE,121,0.0,0.0,78,0.00,,,0.00,0,Wunderground v.1.15,2013-09-16 05:17:00,
2013-09-16 01:18:00,66.8,59.7,29.92,ESE,121,0.0,0.0,78,0.00,,,0.00,0,Wunderground v.1.15,2013-09-16 05:18:00,
2013-09-16 01:19:00,66.8,59.7,29.92,ESE,121,0.0,0.0,78,0.00,,,0.00,0,Wunderground v.1.15,2013-09-16 05:19:00,
2013-09-16 01:21:00,66.8,59.7,29.92,ESE,121,0.0,0.0,78,0.00,,,0.00,0,Wunderground v.1.15,2013-09-16 05:21:00,
2013-09-16 01:24:00,66.8,59.7,29.92,ESE,121,0.0,0.0,78,0.00,,,0.00,0,Wunderground v.1.15,2013-09-16 05:24:00,
2013-09-16 01:26:00,66.8,59.7,29.92,ESE,121,0.0,0.0,78,0.00,,,0.00,0,Wunderground v.1.15,2013-09-16 05:26:00,
2013-09-16 01:29:00,66.7,59.6,29.93,ESE,121,0.0,0.0,78,0.00,,,0.00,0,Wunderground v.1.15,2013-09-16 05:29:00,
2013-09-16 01:30:00,66.7,59.6,29.93,ESE,121,0.0,0.0,78,0.00,,,0.00,0,Wunderground v.1.15,2013-09-16 05:30:00,
2013-09-16 01:32:00,66.7,59.6,29.92,ESE,121,0.0,0.0,78,0.00,,,0.00,0,Wunderground v.1.15,2013-09-16 05:32:00,
2013-09-16 01:33:00,66.7,59.6,29.92,ESE,121,0.0,0.0,78,0.00,,,0.00,0,Wunderground v.1.15,2013-09-16 05:33:00,
2013-09-16 01:35:00,66.7,60.0,29.93,ESE,121,0.0,0.0,79,0.00,,,0.00,0,Wunderground v.1.15,2013-09-16 05:35:00,
2013-09-16 01:38:00,66.7,59.6,29.92,ESE,121,0.0,0.0,78,0.00,,,0.00,0,Wunderground v.1.15,2013-09-16 05:38:00,
2013-09-16 01:40:00,66.6,59.5,29.92,ESE,121,0.0,0.0,78,0.00,,,0.00,0,Wunderground v.1.15,2013-09-16 05:40:00,
2013-09-16 01:43:00,66.6,59.9,29.92,ESE,121,0.0,0.0,79,0.00,,,0.00,0,Wunderground v.1.15,2013-09-16 05:43:00,
2013-09-16 01:45:00,66.6,59.9,29.92,ESE,121,0.0,0.0,79,0.00,,,0.00,0,Wunderground v.1.15,2013-09-16 05:45:00,
2013-09-16 01:46:00,66.6,59.9,29.92,ESE,121,0.0,0.0,79,0.00,,,0.00,0,Wunderground v.1.15,2013-09-16 05:46:00,
2013-09-16 01:47:00,66.6,59.9,29.93,ESE,121,0.0,0.0,79,0.00,,,0.00,0,Wunderground v.1.15,2013-09-16 05:47:00,
2013-09-16 01:49:00,66.6,59.9,29.93,SE,126,0.0,0.0,79,0.00,,,0.00,0,Wunderground v.1.15,2013-09-16 05:49:00,
2013-09-16 01:50:00,66.6,59.9,29.93,SE,126,0.0,0.0,79,0.00,,,0.00,0,Wunderground v.1.15,2013-09-16 05:50:00,
2013-09-16 01:52:00,66.5,59.8,29.93,SE,126,0.0,0.0,79,0.00,,,0.00,0,Wunderground v.1.15,2013-09-16 05:52:00,
2013-09-16 01:54:00,66.5,59.8,29.93,SE,126,0.0,0.0,79,0.00,,,0.00,0,Wunderground v.1.15,2013-09-16 05:54:00,
2013-09-16 01:55:00,66.5,59.8,29.93,SE,126,0.0,0.0,79,0.00,,,0.00,0,Wunderground v.1.15,2013-09-16 05:55:00,
2013-09-16 01:57:00,66.5,59.8,29.93,SE,126,0.0,0.0,79,0.00,,,0.00,0,Wunderground v.1.15,2013-09-16 05:57:00,
2013-09-16 01:59:00,66.5,59.8,29.93,SE,126,0.0,0.0,79,0.00,,,0.00,0,Wunderground v.1.15,2013-09-16 05:59:00,
2013-09-16 02:01:00,66.5,59.8,29.92,SE,126,0.0,0.0,79,0.00,,,0.00,0,Wunderground v.1.15,2013-09-16 06:01:00,
2013-09-16 02:02:00,66.6,59.9,29.93,SE,126,0.0,0.0,79,0.00,,,0.00,0,Wunderground v.1.15,2013-09-16 06:02:00,
2013-09-16 02:03:00,66.6,59.9,29.93,SE,126,0.0,0.0,79,0.00,,,0.00,0,Wunderground v.1.15,2013-09-16 06:03:00,
2013-09-16 02:05:00,66.6,59.9,29.93,SSE,153,0.0,0.0,79,0.00,,,0.00,0,Wunderground v.1.15,2013-09-16 06:05:00,
2013-09-16 02:07:00,66.6,59.9,29.93,SSE,153,0.0,0.0,79,0.00,,,0.00,0,Wunderground v.1.15,2013-09-16 06:07:00,
2013-09-16 02:09:00,66.6,59.9,29.93,SSE,153,0.0,0.0,79,0.00,,,0.00,0,Wunderground v.1.15,2013-09-16 06:09:00,
2013-09-16 02:11:00,66.7,60.0,29.93,SSE,153,0.0,0.0,79,0.00,,,0.00,0,Wunderground v.1.15,2013-09-16 06:11:00,
2013-09-16 02:12:00,66.7,60.0,29.93,SSE,153,0.0,0.0,79,0.00,,,0.00,0,Wunderground v.1.15,2013-09-16 06:12:00,
2013-09-16 02:17:00,66.8,60.1,29.93,South,171,0.0,0.0,79,0.00,,,0.00,0,Wunderground v.1.15,2013-09-16 06:17:00,
2013-09-16 02:18:00,66.8,60.1,29.93,South,171,0.0,0.0,79,0.00,,,0.00,0,Wunderground v.1.15,2013-09-16 06:18:00,
2013-09-16 02:20:00,66.8,60.1,29.92,South,171,0.0,0.0,79,0.00,,,0.00,0,Wunderground v.1.15,2013-09-16 06:20:00,
2013-09-16 02:22:00,66.9,60.2,29.92,South,171,0.0,0.0,79,0.00,,,0.00,0,Wunderground v.1.15,2013-09-16 06:22:00,
2013-09-16 02:23:00,66.9,60.2,29.92,East,82,0.0,0.0,79,0.00,,,0.00,0,Wunderground v.1.15,2013-09-16 06:23:00,
2013-09-16 02:25:00,67.0,60.3,29.93,East,82,0.0,0.0,79,0.00,,,0.00,0,Wunderground v.1.15,2013-09-16 06:25:00,
2013-09-16 02:27:00,67.0,60.3,29.93,East,82,0.0,0.0,79,0.00,,,0.00,0,Wunderground v.1.15,2013-09-16 06:27:00,
2013-09-16 02:28:00,67.0,60.3,29.93,South,177,0.0,0.0,79,0.00,,,0.00,0,Wunderground v.1.15,2013-09-16 06:28:00,
2013-09-16 02:30:00,67.0,60.3,29.92,South,177,0.0,0.0,79,0.00,,,0.00,0,Wunderground v.1.15,2013-09-16 06:30:00,
2013-09-16 02:31:00,67.1,60.4,29.93,South,179,0.0,0.0,79,0.00,,,0.00,0,Wunderground v.1.15,2013-09-16 06:31:00,
2013-09-16 02:32:00,67.1,60.4,29.93,South,179,0.0,0.0,79,0.00,,,0.00,0,Wunderground v.1.15,2013-09-16 06:32:00,
2013-09-16 02:34:00,67.1,60.4,29.93,South,179,0.0,0.0,79,0.00,,,0.00,0,Wunderground v.1.15,2013-09-16 06:34:00,
2013-09-16 02:37:00,67.1,60.4,29.93,South,179,0.0,0.0,79,0.00,,,0.00,0,Wunderground v.1.15,2013-09-16 06:37:00,
2013-09-16 02:38:00,67.1,60.7,29.93,South,179,0.0,0.0,80,0.00,,,0.00,0,Wunderground v.1.15,2013-09-16 06:38:00,
2013-09-16 02:39:00,67.1,60.7,29.93,South,179,0.0,0.0,80,0.00,,,0.00,0,Wunderground v.1.15,2013-09-16 06:39:00,
2013-09-16 02:43:00,67.1,60.7,29.92,South,179,0.0,0.0,80,0.00,,,0.00,0,Wunderground v.1.15,2013-09-16 06:43:00,
2013-09-16 02:44:00,67.1,60.7,29.92,South,179,0.0,0.0,80,0.00,,,0.00,0,Wunderground v.1.15,2013-09-16 06:44:00,
2013-09-16 02:46:00,67.1,60.7,29.92,South,179,0.0,0.0,80,0.00,,,0.00,0,Wunderground v.1.15,2013-09-16 06:46:00,
2013-09-16 02:47:00,67.1,60.7,29.92,South,179,0.0,0.0,80,0.00,,,0.00,0,Wunderground v.1.15,2013-09-16 06:47:00,
2013-09-16 02:49:00,67.1,60.7,29.92,South,179,0.0,0.0,80,0.00,,,0.00,0,Wunderground v.1.15,2013-09-16 06:49:00,
2013-09-16 02:51:00,67.1,60.7,29.93,South,179,0.0,0.0,80,0.00,,,0.00,0,Wunderground v.1.15,2013-09-16 06:51:00,
2013-09-16 02:56:00,67.0,61.0,29.92,South,179,0.0,0.0,81,0.00,,,0.00,0,Wunderground v.1.15,2013-09-16 06:56:00,
2013-09-16 02:57:00,67.0,61.0,29.92,South,179,0.0,0.0,81,0.00,,,0.00,0,Wunderground v.1.15,2013-09-16 06:57:00,
2013-09-16 02:58:00,67.0,61.0,29.93,South,179,0.0,0.0,81,0.00,,,0.00,0,Wunderground v.1.15,2013-09-16 06:58:00,
2013-09-16 03:01:00,67.0,61.0,29.92,South,171,0.0,0.0,81,0.00,,,0.00,0,Wunderground v.1.15,2013-09-16 07:01:00,
2013-09-16 03:02:00,67.0,61.0,29.92,South,171,0.0,0.0,81,0.00,,,0.00,0,Wunderground v.1.15,2013-09-16 07:02:00,
2013-09-16 03:03:00,67.0,61.0,29.92,South,171,0.0,0.0,81,0.00,,,0.00,0,Wunderground v.1.15,2013-09-16 07:03:00,
2013-09-16 03:04:00,67.0,61.0,29.92,South,171,0.0,0.0,81,0.00,,,0.00,0,Wunderground v.1.15,2013-09-16 07:04:00,
2013-09-16 03:06:00,67.0,61.0,29.92,South,171,0.0,0.0,81,0.00,,,0.00,0,Wunderground v.1.15,2013-09-16 07:06:00,
2013-09-16 03:07:00,67.0,61.0,29.92,South,171,0.0,0.0,81,0.00,,,0.00,0,Wunderground v.1.15,2013-09-16 07:07:00,
2013-09-16 03:08:00,67.0,61.0,29.92,South,171,0.0,0.0,81,0.00,,,0.00,0,Wunderground v.1.15,2013-09-16 07:08:00,
2013-09-16 03:09:00,66.9,60.9,29.92,South,171,0.0,0.0,81,0.00,,,0.00,0,Wunderground v.1.15,2013-09-16 07:09:00,
2013-09-16 03:10:00,66.9,60.9,29.92,South,171,0.0,0.0,81,0.00,,,0.00,0,Wunderground v.1.15,2013-09-16 07:10:00,
2013-09-16 03:11:00,66.9,61.2,29.92,South,171,0.0,0.0,82,0.00,,,0.00,0,Wunderground v.1.15,2013-09-16 07:11:00,
2013-09-16 03:12:00,66.9,61.2,29.92,South,171,0.0,0.0,82,0.00,,,0.00,0,Wunderground v.1.15,2013-09-16 07:12:00,
2013-09-16 03:14:00,66.9,61.2,29.92,South,171,0.0,0.0,82,0.00,,,0.00,0,Wunderground v.1.15,2013-09-16 07:14:00,
2013-09-16 03:16:00,66.9,61.2,29.92,SE,126,0.0,0.0,82,0.00,,,0.00,0,Wunderground v.1.15,2013-09-16 07:16:00,
2013-09-16 03:17:00,66.9,61.2,29.92,SE,126,0.0,0.0,82,0.00,,,0.00,0,Wunderground v.1.15,2013-09-16 07:17:00,
2013-09-16 03:18:00,66.9,61.6,29.92,SE,145,0.0,0.0,83,0.00,,,0.00,0,Wunderground v.1.15,2013-09-16 07:18:00,
2013-09-16 03:19:00,66.9,61.2,29.92,SE,145,0.0,0.0,82,0.00,,,0.00,0,Wunderground v.1.15,2013-09-16 07:19:00,
2013-09-16 03:23:00,67.0,61.7,29.91,ESE,107,0.0,0.0,83,0.00,,,0.00,0,Wunderground v.1.15,2013-09-16 07:23:00,
2013-09-16 03:24:00,66.9,61.6,29.91,ESE,107,0.0,0.0,83,0.00,,,0.00,0,Wunderground v.1.15,2013-09-16 07:24:00,
2013-09-16 03:27:00,67.0,61.7,29.91,ESE,107,0.0,0.0,83,0.00,,,0.00,0,Wunderground v.1.15,2013-09-16 07:27:00,
2013-09-16 03:30:00,67.0,61.7,29.91,ESE,107,0.0,0.0,83,0.00,,,0.00,0,Wunderground v.1.15,2013-09-16 07:30:00,
2013-09-16 03:32:00,67.0,61.7,29.92,ESE,107,0.0,0.0,83,0.00,,,0.00,0,Wunderground v.1.15,2013-09-16 07:32:00,
2013-09-16 03:33:00,67.0,62.0,29.91,ESE,107,0.0,0.0,84,0.00,,,0.00,0,Wunderground v.1.15,2013-09-16 07:33:00,
2013-09-16 03:34:00,67.0,62.0,29.91,ESE,107,0.0,0.0,84,0.00,,,0.00,0,Wunderground v.1.15,2013-09-16 07:34:00,
2013-09-16 03:35:00,67.0,62.0,29.91,ESE,107,0.0,0.0,84,0.00,,,0.00,0,Wunderground v.1.15,2013-09-16 07:35:00,
2013-09-16 03:37:00,67.0,62.0,29.92,ESE,107,0.0,0.0,84,0.00,,,0.00,0,Wunderground v.1.15,2013-09-16 07:37:00,
2013-09-16 03:39:00,67.0,62.0,29.91,ESE,107,0.0,0.0,84,0.00,,,0.00,0,Wunderground v.1.15,2013-09-16 07:39:00,
2013-09-16 03:40:00,67.0,62.0,29.91,ESE,107,0.0,0.0,84,0.00,,,0.00,0,Wunderground v.1.15,2013-09-16 07:40:00,
2013-09-16 03:41:00,67.1,62.1,29.91,ESE,107,0.0,0.0,84,0.00,,,0.00,0,Wunderground v.1.15,2013-09-16 07:41:00,
2013-09-16 03:46:00,67.1,62.1,29.91,SSE,156,0.0,0.0,84,0.00,,,0.00,0,Wunderground v.1.15,2013-09-16 07:46:00,
2013-09-16 03:47:00,67.1,62.1,29.91,SSE,156,0.0,0.0,84,0.00,,,0.00,0,Wunderground v.1.15,2013-09-16 07:47:00,
2013-09-16 03:48:00,67.1,62.1,29.91,SSE,156,0.0,0.0,84,0.00,,,0.00,0,Wunderground v.1.15,2013-09-16 07:48:00,
2013-09-16 03:50:00,67.1,62.1,29.91,SSE,156,0.0,0.0,84,0.00,,,0.00,0,Wunderground v.1.15,2013-09-16 07:50:00,
2013-09-16 03:53:00,67.2,62.5,29.91,SSE,156,0.0,0.0,85,0.00,,,0.00,0,Wunderground v.1.15,2013-09-16 07:53:00,
2013-09-16 03:55:00,67.2,62.5,29.91,SSE,156,0.0,0.0,85,0.00,,,0.00,0,Wunderground v.1.15,2013-09-16 07:55:00,
2013-09-16 03:58:00,67.2,62.5,29.91,SSE,156,0.0,0.0,85,0.00,,,0.00,0,Wunderground v.1.15,2013-09-16 07:58:00,
2013-09-16 04:00:00,67.2,62.5,29.91,SSE,156,0.0,0.0,85,0.00,,,0.00,0,Wunderground v.1.15,2013-09-16 08:00:00,
2013-09-16 04:01:00,67.3,62.6,29.91,SSE,156,0.0,0.0,85,0.00,,,0.00,0,Wunderground v.1.15,2013-09-16 08:01:00,
2013-09-16 04:03:00,67.3,62.6,29.91,SSE,156,0.0,0.0,85,0.00,,,0.00,0,Wunderground v.1.15,2013-09-16 08:03:00,
2013-09-16 04:04:00,67.3,63.0,29.91,SSE,156,0.0,0.0,86,0.00,,,0.00,0,Wunderground v.1.15,2013-09-16 08:04:00,
2013-09-16 04:06:00,67.4,63.1,29.91,SSE,156,0.0,0.0,86,0.00,,,0.00,0,Wunderground v.1.15,2013-09-16 08:06:00,
2013-09-16 04:08:00,67.4,63.1,29.91,SSE,156,0.0,0.0,86,0.00,,,0.00,0,Wunderground v.1.15,2013-09-16 08:08:00,
2013-09-16 04:09:00,67.4,63.1,29.91,SSE,156,0.0,0.0,86,0.00,,,0.00,0,Wunderground v.1.15,2013-09-16 08:09:00,
2013-09-16 04:11:00,67.4,63.1,29.91,SSE,156,0.0,0.0,86,0.00,,,0.00,0,Wunderground v.1.15,2013-09-16 08:11:00,
2013-09-16 04:13:00,67.4,63.1,29.91,SSE,156,0.0,0.0,86,0.00,,,0.00,0,Wunderground v.1.15,2013-09-16 08:13:00,
2013-09-16 04:14:00,67.5,63.2,29.91,SSE,156,0.0,0.0,86,0.00,,,0.00,0,Wunderground v.1.15,2013-09-16 08:14:00,
2013-09-16 04:15:00,67.4,63.1,29.91,SSE,156,0.0,0.0,86,0.00,,,0.00,0,Wunderground v.1.15,2013-09-16 08:15:00,
2013-09-16 04:18:00,67.5,63.2,29.91,SSE,156,0.0,0.0,86,0.00,,,0.00,0,Wunderground v.1.15,2013-09-16 08:18:00,
2013-09-16 04:19:00,67.5,63.2,29.91,SE,133,0.0,0.0,86,0.00,,,0.00,0,Wunderground v.1.15,2013-09-16 08:19:00,
2013-09-16 04:20:00,67.5,63.2,29.91,SE,133,0.0,0.0,86,0.00,,,0.00,0,Wunderground v.1.15,2013-09-16 08:20:00,
2013-09-16 04:21:00,67.5,63.2,29.91,SE,133,0.0,0.0,86,0.00,,,0.00,0,Wunderground v.1.15,2013-09-16 08:21:00,
2013-09-16 04:24:00,67.6,63.3,29.91,SE,133,0.0,0.0,86,0.00,,,0.00,0,Wunderground v.1.15,2013-09-16 08:24:00,
2013-09-16 04:25:00,67.6,63.3,29.91,SE,133,0.0,0.0,86,0.00,,,0.00,0,Wunderground v.1.15,2013-09-16 08:25:00,
2013-09-16 04:30:00,67.6,63.3,29.91,SE,133,0.0,0.0,86,0.00,,,0.00,0,Wunderground v.1.15,2013-09-16 08:30:00,
2013-09-16 04:31:00,67.6,63.3,29.91,SE,133,0.0,0.0,86,0.00,,,0.00,0,Wunderground v.1.15,2013-09-16 08:31:00,
2013-09-16 04:33:00,67.6,63.3,29.91,SE,133,0.0,0.0,86,0.00,,,0.00,0,Wunderground v.1.15,2013-09-16 08:33:00,
2013-09-16 04:34:00,67.6,63.3,29.91,SE,133,0.0,0.0,86,0.00,,,0.00,0,Wunderground v.1.15,2013-09-16 08:34:00,
2013-09-16 04:37:00,67.6,63.3,29.91,SE,133,0.0,0.0,86,0.00,,,0.00,0,Wunderground v.1.15,2013-09-16 08:37:00,
2013-09-16 04:38:00,67.6,63.3,29.91,SE,133,0.0,0.0,86,0.00,,,0.00,0,Wunderground v.1.15,2013-09-16 08:38:00,
2013-09-16 04:41:00,67.5,63.5,29.91,SE,133,0.0,0.0,87,0.00,,,0.00,0,Wunderground v.1.15,2013-09-16 08:41:00,
2013-09-16 04:42:00,67.6,63.6,29.91,SE,133,0.0,0.0,87,0.00,,,0.00,0,Wunderground v.1.15,2013-09-16 08:42:00,
2013-09-16 04:43:00,67.5,63.5,29.91,SE,133,0.0,0.0,87,0.00,,,0.00,0,Wunderground v.1.15,2013-09-16 08:43:00,
2013-09-16 04:44:00,67.5,63.5,29.90,SE,133,0.0,0.0,87,0.00,,,0.00,0,Wunderground v.1.15,2013-09-16 08:44:00,
2013-09-16 04:47:00,67.5,63.5,29.91,SE,133,0.0,0.0,87,0.00,,,0.00,0,Wunderground v.1.15,2013-09-16 08:47:00,
2013-09-16 04:48:00,67.4,63.4,29.91,SE,133,0.0,0.0,87,0.00,,,0.00,0,Wunderground v.1.15,2013-09-16 08:48:00,
2013-09-16 04:49:00,67.5,63.5,29.91,SE,133,0.0,0.0,87,0.00,,,0.00,0,Wunderground v.1.15,2013-09-16 08:49:00,
2013-09-16 04:50:00,67.4,63.4,29.91,SE,133,0.0,0.0,87,0.00,,,0.00,0,Wunderground v.1.15,2013-09-16 08:50:00,
2013-09-16 04:53:00,67.4,63.4,29.91,SE,133,0.0,0.0,87,0.00,,,0.00,0,Wunderground v.1.15,2013-09-16 08:53:00,
2013-09-16 04:55:00,67.4,63.4,29.91,SE,133,0.0,0.0,87,0.00,,,0.00,0,Wunderground v.1.15,2013-09-16 08:55:00,
2013-09-16 04:56:00,67.3,63.6,29.91,SE,133,0.0,0.0,88,0.00,,,0.00,0,Wunderground v.1.15,2013-09-16 08:56:00,
2013-09-16 04:57:00,67.3,63.6,29.91,SE,133,0.0,0.0,88,0.00,,,0.00,0,Wunderground v.1.15,2013-09-16 08:57:00,
2013-09-16 04:58:00,67.3,63.6,29.91,SE,133,0.0,0.0,88,0.00,,,0.00,0,Wunderground v.1.15,2013-09-16 08:58:00,
2013-09-16 05:01:00,67.2,63.5,29.91,SE,133,0.0,0.0,88,0.00,,,0.00,0,Wunderground v.1.15,2013-09-16 09:01:00,
2013-09-16 05:03:00,67.2,63.5,29.91,SE,133,0.0,0.0,88,0.00,,,0.00,0,Wunderground v.1.15,2013-09-16 09:03:00,
2013-09-16 05:05:00,67.1,63.4,29.91,SE,133,0.0,0.0,88,0.00,,,0.00,0,Wunderground v.1.15,2013-09-16 09:05:00,
2013-09-16 05:06:00,67.1,63.4,29.91,SE,133,0.0,0.0,88,0.00,,,0.00,0,Wunderground v.1.15,2013-09-16 09:06:00,
2013-09-16 05:07:00,67.1,63.4,29.91,SE,133,0.0,0.0,88,0.00,,,0.00,0,Wunderground v.1.15,2013-09-16 09:07:00,
2013-09-16 05:08:00,67.1,63.4,29.91,SE,133,0.0,0.0,88,0.00,,,0.00,0,Wunderground v.1.15,2013-09-16 09:08:00,
2013-09-16 05:09:00,67.1,63.4,29.91,SE,133,0.0,0.0,88,0.00,,,0.00,0,Wunderground v.1.15,2013-09-16 09:09:00,
2013-09-16 05:10:00,67.0,63.3,29.91,SE,133,0.0,0.0,88,0.00,,,0.00,0,Wunderground v.1.15,2013-09-16 09:10:00,
2013-09-16 05:11:00,67.0,63.3,29.91,SE,133,0.0,0.0,88,0.00,,,0.00,0,Wunderground v.1.15,2013-09-16 09:11:00,
2013-09-16 05:14:00,67.0,63.3,29.91,SE,133,0.0,0.0,88,0.00,,,0.00,0,Wunderground v.1.15,2013-09-16 09:14:00,
2013-09-16 05:16:00,66.9,63.2,29.91,SE,133,0.0,0.0,88,0.00,,,0.00,0,Wunderground v.1.15,2013-09-16 09:16:00,
2013-09-16 05:17:00,66.9,63.2,29.91,SE,133,0.0,0.0,88,0.00,,,0.00,0,Wunderground v.1.15,2013-09-16 09:17:00,
2013-09-16 05:19:00,66.8,63.1,29.91,SE,133,0.0,0.0,88,0.00,,,0.00,0,Wunderground v.1.15,2013-09-16 09:19:00,
2013-09-16 05:21:00,66.8,63.1,29.91,SE,133,0.0,0.0,88,0.00,,,0.00,0,Wunderground v.1.15,2013-09-16 09:21:00,
2013-09-16 05:22:00,66.8,63.1,29.91,SE,133,0.0,0.0,88,0.00,,,0.00,0,Wunderground v.1.15,2013-09-16 09:22:00,
2013-09-16 05:23:00,66.7,63.4,29.91,SE,133,0.0,0.0,89,0.00,,,0.00,0,Wunderground v.1.15,2013-09-16 09:23:00,
2013-09-16 05:26:00,66.7,63.4,29.91,SE,133,0.0,0.0,89,0.00,,,0.00,0,Wunderground v.1.15,2013-09-16 09:26:00,
2013-09-16 05:28:00,66.7,63.4,29.91,SE,133,0.0,0.0,89,0.00,,,0.00,0,Wunderground v.1.15,2013-09-16 09:28:00,
2013-09-16 05:30:00,66.7,63.4,29.91,SE,133,0.0,0.0,89,0.00,,,0.00,0,Wunderground v.1.15,2013-09-16 09:30:00,
2013-09-16 05:33:00,66.6,63.3,29.91,SE,133,0.0,0.0,89,0.00,,,0.00,0,Wunderground v.1.15,2013-09-16 09:33:00,
2013-09-16 05:35:00,66.5,63.2,29.90,SE,133,0.0,0.0,89,0.00,,,0.00,0,Wunderground v.1.15,2013-09-16 09:35:00,
2013-09-16 05:36:00,66.5,63.2,29.91,SE,133,0.0,0.0,89,0.00,,,0.00,0,Wunderground v.1.15,2013-09-16 09:36:00,
2013-09-16 05:37:00,66.5,63.2,29.91,SE,133,0.0,0.0,89,0.00,,,0.00,0,Wunderground v.1.15,2013-09-16 09:37:00,
2013-09-16 05:38:00,66.5,63.2,29.91,SE,133,0.0,0.0,89,0.00,,,0.00,0,Wunderground v.1.15,2013-09-16 09:38:00,
2013-09-16 05:39:00,66.5,63.2,29.90,SE,133,0.0,0.0,89,0.00,,,0.00,0,Wunderground v.1.15,2013-09-16 09:39:00,
2013-09-16 05:41:00,66.4,63.1,29.90,SE,133,0.0,0.0,89,0.00,,,0.00,0,Wunderground v.1.15,2013-09-16 09:41:00,
2013-09-16 05:42:00,66.4,63.1,29.90,SE,133,0.0,0.0,89,0.00,,,0.00,0,Wunderground v.1.15,2013-09-16 09:42:00,
2013-09-16 05:45:00,66.3,63.3,29.90,SE,133,0.0,0.0,90,0.00,,,0.00,0,Wunderground v.1.15,2013-09-16 09:45:00,
2013-09-16 05:46:00,66.3,63.3,29.90,SE,133,0.0,0.0,90,0.00,,,0.00,0,Wunderground v.1.15,2013-09-16 09:46:00,
2013-09-16 05:47:00,66.3,63.3,29.91,SE,133,0.0,0.0,90,0.00,,,0.00,0,Wunderground v.1.15,2013-09-16 09:47:00,
2013-09-16 05:48:00,66.3,63.3,29.90,SE,133,0.0,0.0,90,0.00,,,0.00,0,Wunderground v.1.15,2013-09-16 09:48:00,
2013-09-16 05:50:00,66.3,63.3,29.90,SE,133,0.0,0.0,90,0.00,,,0.00,0,Wunderground v.1.15,2013-09-16 09:50:00,
2013-09-16 05:52:00,66.3,63.3,29.90,SE,133,0.0,0.0,90,0.00,,,0.00,0,Wunderground v.1.15,2013-09-16 09:52:00,
2013-09-16 05:53:00,66.2,63.2,29.90,SE,133,0.0,0.0,90,0.00,,,0.00,0,Wunderground v.1.15,2013-09-16 09:53:00,
2013-09-16 05:55:00,66.2,63.2,29.90,SE,133,0.0,0.0,90,0.00,,,0.00,0,Wunderground v.1.15,2013-09-16 09:55:00,
2013-09-16 05:56:00,66.2,63.2,29.90,SE,133,0.0,0.0,90,0.00,,,0.00,0,Wunderground v.1.15,2013-09-16 09:56:00,
2013-09-16 05:57:00,66.2,63.5,29.90,SE,133,0.0,0.0,91,0.00,,,0.00,0,Wunderground v.1.15,2013-09-16 09:57:00,
2013-09-16 05:58:00,66.2,63.5,29.90,SE,133,0.0,0.0,91,0.00,,,0.00,0,Wunderground v.1.15,2013-09-16 09:58:00,
2013-09-16 06:01:00,66.2,63.8,29.90,SE,133,0.0,0.0,92,0.00,,,0.00,0,Wunderground v.1.15,2013-09-16 10:01:00,
2013-09-16 06:04:00,66.2,63.5,29.90,SE,133,0.0,0.0,91,0.00,,,0.00,0,Wunderground v.1.15,2013-09-16 10:04:00,
2013-09-16 06:06:00,66.2,63.5,29.90,SE,133,0.0,0.0,91,0.00,,,0.00,0,Wunderground v.1.15,2013-09-16 10:06:00,
2013-09-16 06:09:00,66.2,63.5,29.90,SE,133,0.0,0.0,91,0.00,,,0.00,0,Wunderground v.1.15,2013-09-16 10:09:00,
2013-09-16 06:10:00,66.2,63.5,29.90,SE,133,0.0,0.0,91,0.00,,,0.00,0,Wunderground v.1.15,2013-09-16 10:10:00,
2013-09-16 06:12:00,66.2,63.5,29.90,SE,133,0.0,0.0,91,0.00,,,0.00,0,Wunderground v.1.15,2013-09-16 10:12:00,
2013-09-16 06:13:00,66.2,63.5,29.90,SE,133,0.0,0.0,91,0.00,,,0.00,0,Wunderground v.1.15,2013-09-16 10:13:00,
2013-09-16 06:15:00,66.2,63.5,29.90,SE,133,0.0,0.0,91,0.00,,,0.00,0,Wunderground v.1.15,2013-09-16 10:15:00,
2013-09-16 06:17:00,66.2,63.5,29.90,SE,133,0.0,0.0,91,0.00,,,0.00,0,Wunderground v.1.15,2013-09-16 10:17:00,
2013-09-16 06:19:00,66.3,63.6,29.90,SE,133,0.0,0.0,91,0.00,,,0.00,0,Wunderground v.1.15,2013-09-16 10:19:00,
2013-09-16 06:20:00,66.3,63.6,29.90,SE,133,0.0,0.0,91,0.00,,,0.00,0,Wunderground v.1.15,2013-09-16 10:20:00,
2013-09-16 06:21:00,66.3,63.9,29.90,SE,133,0.0,0.0,92,0.00,,,0.00,0,Wunderground v.1.15,2013-09-16 10:21:00,
2013-09-16 06:22:00,66.3,63.9,29.90,SE,133,0.0,0.0,92,0.00,,,0.00,0,Wunderground v.1.15,2013-09-16 10:22:00,
2013-09-16 06:23:00,66.3,63.9,29.90,SE,133,0.0,0.0,92,0.00,,,0.00,0,Wunderground v.1.15,2013-09-16 10:23:00,
2013-09-16 06:26:00,66.3,63.9,29.90,SE,134,0.0,0.0,92,0.00,,,0.00,0,Wunderground v.1.15,2013-09-16 10:26:00,
2013-09-16 06:27:00,66.4,64.0,29.90,SE,133,0.0,0.0,92,0.00,,,0.00,0,Wunderground v.1.15,2013-09-16 10:27:00,
2013-09-16 06:28:00,66.4,64.0,29.90,SE,134,0.0,0.0,92,0.00,,,0.00,0,Wunderground v.1.15,2013-09-16 10:28:00,
2013-09-16 06:29:00,66.4,64.3,29.90,SE,134,0.0,0.0,93,0.00,,,0.00,0,Wunderground v.1.15,2013-09-16 10:29:00,
2013-09-16 06:30:00,66.4,64.3,29.90,SE,133,0.0,0.0,93,0.00,,,0.00,0,Wunderground v.1.15,2013-09-16 10:30:00,
2013-09-16 06:33:00,66.5,64.4,29.90,SE,134,0.0,0.0,93,0.00,,,0.00,0,Wunderground v.1.15,2013-09-16 10:33:00,
2013-09-16 06:34:00,66.5,64.4,29.90,SE,134,0.0,0.0,93,0.00,,,0.00,0,Wunderground v.1.15,2013-09-16 10:34:00,
2013-09-16 06:35:00,66.5,64.4,29.90,SE,134,0.0,0.0,93,0.00,,,0.00,0,Wunderground v.1.15,2013-09-16 10:35:00,
2013-09-16 06:36:00,66.5,64.4,29.91,SE,134,0.0,0.0,93,0.00,,,0.00,0,Wunderground v.1.15,2013-09-16 10:36:00,
2013-09-16 06:38:00,66.5,64.4,29.90,SE,134,0.0,0.0,93,0.00,,,0.00,0,Wunderground v.1.15,2013-09-16 10:38:00,
2013-09-16 06:39:00,66.6,64.5,29.90,SE,133,0.0,0.0,93,0.00,,,0.00,0,Wunderground v.1.15,2013-09-16 10:39:00,
2013-09-16 06:41:00,66.6,64.5,29.91,SE,133,0.0,0.0,93,0.00,,,0.00,0,Wunderground v.1.15,2013-09-16 10:41:00,
2013-09-16 06:42:00,66.6,64.5,29.90,SE,134,0.0,0.0,93,0.00,,,0.00,0,Wunderground v.1.15,2013-09-16 10:42:00,
2013-09-16 06:43:00,66.7,64.6,29.90,SE,134,0.0,0.0,93,0.00,,,0.00,0,Wunderground v.1.15,2013-09-16 10:43:00,
2013-09-16 06:45:00,66.7,64.6,29.90,SE,134,0.0,0.0,93,0.00,,,0.00,0,Wunderground v.1.15,2013-09-16 10:45:00,
2013-09-16 06:47:00,66.8,64.7,29.90,SE,134,0.0,0.0,93,0.00,,,0.00,0,Wunderground v.1.15,2013-09-16 10:47:00,
2013-09-16 06:48:00,66.8,65.0,29.90,SE,142,0.0,0.0,94,0.00,,,0.00,0,Wunderground v.1.15,2013-09-16 10:48:00,
2013-09-16 06:50:00,66.9,65.1,29.90,SE,142,0.0,0.0,94,0.00,,,0.00,0,Wunderground v.1.15,2013-09-16 10:50:00,
2013-09-16 06:51:00,67.0,65.2,29.90,SE,142,0.0,0.0,94,0.00,,,0.00,0,Wunderground v.1.15,2013-09-16 10:51:00,
2013-09-16 06:52:00,67.0,65.2,29.90,SE,142,0.0,0.0,94,0.00,,,0.00,0,Wunderground v.1.15,2013-09-16 10:52:00,
2013-09-16 06:54:00,67.1,65.3,29.90,SE,142,0.0,0.0,94,0.00,,,0.00,0,Wunderground v.1.15,2013-09-16 10:54:00,
2013-09-16 06:56:00,67.1,65.3,29.90,SE,142,0.0,0.0,94,0.00,,,0.00,0,Wunderground v.1.15,2013-09-16 10:56:00,
2013-09-16 06:57:00,67.2,65.4,29.90,SE,142,0.0,0.0,94,0.00,,,0.00,0,Wunderground v.1.15,2013-09-16 10:57:00,
2013-09-16 06:58:00,67.2,65.4,29.90,SE,142,0.0,0.0,94,0.00,,,0.00,0,Wunderground v.1.15,2013-09-16 10:58:00,
2013-09-16 07:00:00,67.2,65.4,29.90,SE,142,0.0,0.0,94,0.00,,,0.00,0,Wunderground v.1.15,2013-09-16 11:00:00,
2013-09-16 07:01:00,67.3,65.5,29.90,SE,142,0.0,0.0,94,0.00,,,0.00,0,Wunderground v.1.15,2013-09-16 11:01:00,
2013-09-16 07:03:00,67.3,65.5,29.91,SE,142,0.0,0.0,94,0.00,,,0.00,0,Wunderground v.1.15,2013-09-16 11:03:00,
2013-09-16 07:04:00,67.4,65.6,29.90,SE,142,0.0,0.0,94,0.00,,,0.00,0,Wunderground v.1.15,2013-09-16 11:04:00,
2013-09-16 07:05:00,67.4,65.6,29.91,SE,142,0.0,0.0,94,0.00,,,0.00,0,Wunderground v.1.15,2013-09-16 11:05:00,
2013-09-16 07:08:00,67.5,65.7,29.91,ESE,113,0.0,0.0,94,0.00,,,0.00,0,Wunderground v.1.15,2013-09-16 11:08:00,
2013-09-16 07:09:00,67.5,65.7,29.91,ESE,113,0.0,0.0,94,0.00,,,0.00,0,Wunderground v.1.15,2013-09-16 11:09:00,
2013-09-16 07:10:00,67.5,65.7,29.91,ESE,113,0.0,0.0,94,0.00,,,0.00,0,Wunderground v.1.15,2013-09-16 11:10:00,
2013-09-16 07:12:00,67.6,65.8,29.91,SE,135,0.0,0.0,94,0.00,,,0.00,0,Wunderground v.1.15,2013-09-16 11:12:00,
2013-09-16 07:17:00,67.6,65.8,29.91,SE,135,0.0,0.0,94,0.00,,,0.00,5,Wunderground v.1.15,2013-09-16 11:17:00,
2013-09-16 07:19:00,67.6,65.8,29.91,SE,135,0.0,0.0,94,0.00,,,0.00,0,Wunderground v.1.15,2013-09-16 11:19:00,
2013-09-16 07:20:00,67.6,65.8,29.91,SE,135,0.0,0.0,94,0.00,,,0.00,0,Wunderground v.1.15,2013-09-16 11:20:00,
2013-09-16 07:22:00,67.6,65.8,29.91,SE,135,0.0,0.0,94,0.00,,,0.00,5,Wunderground v.1.15,2013-09-16 11:22:00,
2013-09-16 07:23:00,67.6,65.8,29.91,SE,135,0.0,0.0,94,0.00,,,0.00,5,Wunderground v.1.15,2013-09-16 11:23:00,
2013-09-16 07:24:00,67.7,65.9,29.91,SE,135,0.0,0.0,94,0.00,,,0.00,5,Wunderground v.1.15,2013-09-16 11:24:00,
2013-09-16 07:25:00,67.7,65.9,29.91,SE,135,0.0,0.0,94,0.00,,,0.00,5,Wunderground v.1.15,2013-09-16 11:25:00,
2013-09-16 07:27:00,67.7,65.9,29.91,SE,135,0.0,0.0,94,0.00,,,0.00,7,Wunderground v.1.15,2013-09-16 11:27:00,
2013-09-16 07:29:00,67.7,65.9,29.90,SE,135,0.0,0.0,94,0.00,,,0.00,9,Wunderground v.1.15,2013-09-16 11:29:00,
2013-09-16 07:30:00,67.7,65.9,29.91,SE,135,0.0,0.0,94,0.00,,,0.00,9,Wunderground v.1.15,2013-09-16 11:30:00,
2013-09-16 07:34:00,67.8,66.0,29.91,SE,135,0.0,0.0,94,0.00,,,0.00,12,Wunderground v.1.15,2013-09-16 11:34:00,
2013-09-16 07:35:00,67.8,66.0,29.91,SE,135,0.0,0.0,94,0.00,,,0.00,12,Wunderground v.1.15,2013-09-16 11:35:00,
2013-09-16 07:37:00,67.9,66.1,29.91,SE,135,0.0,0.0,94,0.00,,,0.00,12,Wunderground v.1.15,2013-09-16 11:37:00,
2013-09-16 07:39:00,67.9,66.1,29.91,SE,135,0.0,0.0,94,0.00,,,0.00,12,Wunderground v.1.15,2013-09-16 11:39:00,
2013-09-16 07:40:00,67.9,66.1,29.91,SE,135,0.0,0.0,94,0.00,,,0.00,12,Wunderground v.1.15,2013-09-16 11:40:00,
2013-09-16 07:41:00,67.9,66.1,29.91,SE,135,0.0,0.0,94,0.00,,,0.00,14,Wunderground v.1.15,2013-09-16 11:41:00,
2013-09-16 07:42:00,67.9,66.1,29.91,SE,135,0.0,0.0,94,0.00,,,0.00,14,Wunderground v.1.15,2013-09-16 11:42:00,
2013-09-16 07:45:00,68.0,66.2,29.91,SE,135,0.0,0.0,94,0.00,,,0.00,14,Wunderground v.1.15,2013-09-16 11:45:00,
2013-09-16 07:46:00,68.0,66.5,29.91,SE,135,0.0,0.0,95,0.00,,,0.00,14,Wunderground v.1.15,2013-09-16 11:46:00,
2013-09-16 07:47:00,68.0,66.2,29.91,SE,135,0.0,0.0,94,0.00,,,0.00,14,Wunderground v.1.15,2013-09-16 11:47:00,
2013-09-16 07:48:00,68.1,66.3,29.91,SE,135,0.0,0.0,94,0.00,,,0.00,14,Wunderground v.1.15,2013-09-16 11:48:00,
2013-09-16 07:52:00,68.1,66.3,29.91,SE,135,0.0,0.0,94,0.00,,,0.00,16,Wunderground v.1.15,2013-09-16 11:52:00,
2013-09-16 07:54:00,68.2,66.4,29.91,SE,135,0.0,0.0,94,0.00,,,0.00,19,Wunderground v.1.15,2013-09-16 11:54:00,
2013-09-16 07:55:00,68.3,66.5,29.90,SE,135,0.0,0.0,94,0.00,,,0.00,21,Wunderground v.1.15,2013-09-16 11:55:00,
2013-09-16 07:56:00,68.3,66.5,29.91,SE,135,0.0,0.0,94,0.00,,,0.00,19,Wunderground v.1.15,2013-09-16 11:56:00,
2013-09-16 07:58:00,68.4,66.6,29.91,SE,135,0.0,0.0,94,0.00,,,0.00,25,Wunderground v.1.15,2013-09-16 11:58:00,
2013-09-16 07:59:00,68.4,66.6,29.91,SE,135,0.0,0.0,94,0.00,,,0.00,26,Wunderground v.1.15,2013-09-16 11:59:00,
2013-09-16 08:00:00,68.4,66.6,29.91,SE,135,0.0,0.0,94,0.00,,,0.00,30,Wunderground v.1.15,2013-09-16 12:00:00,
2013-09-16 08:02:00,68.5,66.7,29.91,SE,135,0.0,0.0,94,0.00,,,0.00,25,Wunderground v.1.15,2013-09-16 12:02:00,
2013-09-16 08:03:00,68.5,66.7,29.91,SE,135,0.0,0.0,94,0.00,,,0.00,32,Wunderground v.1.15,2013-09-16 12:03:00,
2013-09-16 08:05:00,68.6,66.8,29.91,SE,135,0.0,0.0,94,0.00,,,0.00,26,Wunderground v.1.15,2013-09-16 12:05:00,
2013-09-16 08:06:00,68.6,66.8,29.91,SE,135,0.0,0.0,94,0.00,,,0.00,30,Wunderground v.1.15,2013-09-16 12:06:00,
2013-09-16 08:08:00,68.7,66.9,29.91,West,273,0.0,0.0,94,0.00,,,0.00,30,Wunderground v.1.15,2013-09-16 12:08:00,
2013-09-16 08:10:00,68.8,67.0,29.91,West,271,0.0,0.0,94,0.00,,,0.00,28,Wunderground v.1.15,2013-09-16 12:10:00,
2013-09-16 08:11:00,68.8,67.0,29.91,West,271,0.0,0.0,94,0.00,,,0.00,26,Wunderground v.1.15,2013-09-16 12:11:00,
2013-09-16 08:12:00,68.8,67.0,29.91,West,271,0.0,0.0,94,0.00,,,0.00,26,Wunderground v.1.15,2013-09-16 12:12:00,
2013-09-16 08:13:00,68.9,67.1,29.91,SE,132,0.0,0.0,94,0.00,,,0.00,26,Wunderground v.1.15,2013-09-16 12:13:00,
2013-09-16 08:15:00,69.0,67.5,29.91,South,173,0.0,0.0,95,0.00,,,0.00,28,Wunderground v.1.15,2013-09-16 12:15:00,
2013-09-16 08:17:00,69.0,67.2,29.91,South,173,0.0,0.0,94,0.00,,,0.00,25,Wunderground v.1.15,2013-09-16 12:17:00,
2013-09-16 08:19:00,69.1,67.3,29.91,South,173,0.0,0.0,94,0.00,,,0.00,26,Wunderground v.1.15,2013-09-16 12:19:00,
2013-09-16 08:20:00,69.1,67.3,29.91,South,173,0.0,0.0,94,0.00,,,0.00,26,Wunderground v.1.15,2013-09-16 12:20:00,
2013-09-16 08:21:00,69.2,67.4,29.91,South,173,0.0,0.0,94,0.00,,,0.00,30,Wunderground v.1.15,2013-09-16 12:21:00,
2013-09-16 08:22:00,69.2,67.4,29.91,South,173,0.0,0.0,94,0.00,,,0.00,28,Wunderground v.1.15,2013-09-16 12:22:00,
2013-09-16 08:25:00,69.3,67.5,29.91,NNE,26,0.0,0.0,94,0.00,,,0.00,32,Wunderground v.1.15,2013-09-16 12:25:00,
2013-09-16 08:26:00,69.3,67.5,29.91,NNE,26,0.0,0.0,94,0.00,,,0.00,30,Wunderground v.1.15,2013-09-16 12:26:00,
2013-09-16 08:27:00,69.4,67.6,29.91,NNE,26,0.0,0.0,94,0.00,,,0.00,33,Wunderground v.1.15,2013-09-16 12:27:00,
2013-09-16 08:31:00,69.5,67.7,29.91,NE,46,0.0,0.0,94,0.00,,,0.00,39,Wunderground v.1.15,2013-09-16 12:31:00,
2013-09-16 08:32:00,69.5,67.7,29.91,NE,46,0.0,0.0,94,0.00,,,0.00,42,Wunderground v.1.15,2013-09-16 12:32:00,
2013-09-16 08:33:00,69.5,67.7,29.91,NE,46,0.0,0.0,94,0.00,,,0.00,32,Wunderground v.1.15,2013-09-16 12:33:00,
2013-09-16 08:36:00,69.6,67.8,29.91,West,262,0.0,0.0,94,0.00,,,0.00,46,Wunderground v.1.15,2013-09-16 12:36:00,
2013-09-16 08:37:00,69.7,67.9,29.91,WSW,251,0.0,0.0,94,0.00,,,0.00,49,Wunderground v.1.15,2013-09-16 12:37:00,
2013-09-16 08:40:00,69.7,67.9,29.91,WSW,248,0.0,0.0,94,0.00,,,0.00,51,Wunderground v.1.15,2013-09-16 12:40:00,
2013-09-16 08:41:00,69.7,67.9,29.91,WSW,248,0.0,0.0,94,0.00,,,0.00,56,Wunderground v.1.15,2013-09-16 12:41:00,
2013-09-16 08:42:00,69.7,67.9,29.91,WSW,248,0.0,0.0,94,0.00,,,0.00,53,Wunderground v.1.15,2013-09-16 12:42:00,
2013-09-16 08:46:00,69.9,67.8,29.91,SW,221,0.0,0.0,93,0.00,,,0.00,67,Wunderground v.1.15,2013-09-16 12:46:00,
2013-09-16 08:47:00,69.9,68.1,29.91,SW,221,0.0,0.0,94,0.00,,,0.00,77,Wunderground v.1.15,2013-09-16 12:47:00,
2013-09-16 08:50:00,70.0,67.9,29.91,WSW,237,0.0,0.0,93,0.00,,,0.00,91,Wunderground v.1.15,2013-09-16 12:50:00,
2013-09-16 08:51:00,70.0,67.9,29.91,WSW,237,0.0,0.0,93,0.00,,,0.00,116,Wunderground v.1.15,2013-09-16 12:51:00,
2013-09-16 08:55:00,70.1,68.0,29.91,WSW,242,0.0,0.0,93,0.00,,,0.00,102,Wunderground v.1.15,2013-09-16 12:55:00,
2013-09-16 08:56:00,70.2,68.1,29.91,WSW,242,0.0,0.0,93,0.00,,,0.00,100,Wunderground v.1.15,2013-09-16 12:56:00,
2013-09-16 08:57:00,70.2,68.1,29.91,WSW,242,0.0,0.0,93,0.00,,,0.00,98,Wunderground v.1.15,2013-09-16 12:57:00,
2013-09-16 09:01:00,70.5,68.4,29.91,ESE,113,0.0,0.0,93,0.00,,,0.00,107,Wunderground v.1.15,2013-09-16 13:01:00,
2013-09-16 09:02:00,70.6,68.2,29.91,South,170,0.0,0.0,92,0.00,,,0.00,107,Wunderground v.1.15,2013-09-16 13:02:00,
2013-09-16 09:03:00,70.7,68.3,29.91,South,170,0.0,0.0,92,0.00,,,0.00,93,Wunderground v.1.15,2013-09-16 13:03:00,
2013-09-16 09:06:00,70.8,68.4,29.92,South,171,0.0,0.0,92,0.00,,,0.00,211,Wunderground v.1.15,2013-09-16 13:06:00,
2013-09-16 09:07:00,70.9,68.5,29.92,South,171,0.0,0.0,92,0.00,,,0.00,128,Wunderground v.1.15,2013-09-16 13:07:00,
2013-09-16 09:08:00,70.9,68.5,29.91,South,172,0.0,0.0,92,0.00,,,0.00,179,Wunderground v.1.15,2013-09-16 13:08:00,
2013-09-16 09:10:00,71.0,68.2,29.92,South,172,0.0,0.0,91,0.00,,,0.00,102,Wunderground v.1.15,2013-09-16 13:10:00,
2013-09-16 09:11:00,71.0,68.2,29.92,South,172,0.0,0.0,91,0.00,,,0.00,146,Wunderground v.1.15,2013-09-16 13:11:00,
2013-09-16 09:12:00,71.1,68.3,29.92,South,172,0.0,0.0,91,0.00,,,0.00,127,Wunderground v.1.15,2013-09-16 13:12:00,
2013-09-16 09:15:00,71.2,68.4,29.92,South,187,0.0,1.0,91,0.00,,,0.00,105,Wunderground v.1.15,2013-09-16 13:15:00,
2013-09-16 09:16:00,71.2,68.4,29.92,SSE,155,0.0,1.0,91,0.00,,,0.00,98,Wunderground v.1.15,2013-09-16 13:16:00,
2013-09-16 09:18:00,71.3,68.2,29.92,South,181,0.0,1.0,90,0.00,,,0.00,90,Wunderground v.1.15,2013-09-16 13:18:00,
2013-09-16 09:19:00,71.3,68.2,29.92,South,181,0.0,1.0,90,0.00,,,0.00,91,Wunderground v.1.15,2013-09-16 13:19:00,
2013-09-16 09:20:00,71.3,68.2,29.92,South,181,0.0,0.0,90,0.00,,,0.00,97,Wunderground v.1.15,2013-09-16 13:20:00,
2013-09-16 09:21:00,71.3,68.2,29.92,South,181,0.0,0.0,90,0.00,,,0.00,93,Wunderground v.1.15,2013-09-16 13:21:00,
2013-09-16 09:25:00,71.4,68.3,29.92,SW,232,0.0,0.0,90,0.00,,,0.00,69,Wunderground v.1.15,2013-09-16 13:25:00,
2013-09-16 09:28:00,71.4,68.3,29.92,WNW,296,0.0,0.0,90,0.00,,,0.00,76,Wunderground v.1.15,2013-09-16 13:28:00,
2013-09-16 09:30:00,71.5,68.4,29.91,WNW,296,0.0,0.0,90,0.00,,,0.00,84,Wunderground v.1.15,2013-09-16 13:30:00,
2013-09-16 09:31:00,71.5,68.4,29.91,West,279,0.0,0.0,90,0.00,,,0.00,95,Wunderground v.1.15,2013-09-16 13:31:00,
2013-09-16 09:33:00,71.5,68.1,29.91,West,279,0.0,0.0,89,0.00,,,0.00,86,Wunderground v.1.15,2013-09-16 13:33:00,
2013-09-16 09:34:00,71.5,68.1,29.91,West,279,0.0,0.0,89,0.00,,,0.00,105,Wunderground v.1.15,2013-09-16 13:34:00,
2013-09-16 09:35:00,71.5,68.4,29.91,West,279,0.0,0.0,90,0.00,,,0.00,153,Wunderground v.1.15,2013-09-16 13:35:00,
2013-09-16 09:39:00,71.7,68.6,29.91,West,279,0.0,0.0,90,0.00,,,0.00,355,Wunderground v.1.15,2013-09-16 13:39:00,
2013-09-16 09:40:00,71.7,68.6,29.91,West,279,0.0,0.0,90,0.00,,,0.00,364,Wunderground v.1.15,2013-09-16 13:40:00,
2013-09-16 09:43:00,71.9,68.5,29.91,SSW,193,0.0,0.0,89,0.00,,,0.00,141,Wunderground v.1.15,2013-09-16 13:43:00,
2013-09-16 09:44:00,71.9,68.5,29.91,SSW,193,0.0,0.0,89,0.00,,,0.00,141,Wunderground v.1.15,2013-09-16 13:44:00,
2013-09-16 09:47:00,72.2,68.8,29.91,SSW,193,0.0,0.0,89,0.00,,,0.00,462,Wunderground v.1.15,2013-09-16 13:47:00,
2013-09-16 09:48:00,72.2,68.4,29.91,SSE,152,0.0,0.0,88,0.00,,,0.00,487,Wunderground v.1.15,2013-09-16 13:48:00,
2013-09-16 09:49:00,72.2,68.4,29.91,SSE,151,0.0,0.0,88,0.00,,,0.00,406,Wunderground v.1.15,2013-09-16 13:49:00,
2013-09-16 09:50:00,72.3,68.5,29.91,WNW,283,0.0,0.0,88,0.00,,,0.00,264,Wunderground v.1.15,2013-09-16 13:50:00,
2013-09-16 09:51:00,72.4,68.6,29.91,WNW,283,0.0,0.0,88,0.00,,,0.00,281,Wunderground v.1.15,2013-09-16 13:51:00,
2013-09-16 09:53:00,72.5,68.4,29.91,WSW,245,0.0,0.0,87,0.00,,,0.00,244,Wunderground v.1.15,2013-09-16 13:53:00,
2013-09-16 09:54:00,72.6,68.5,29.91,WSW,245,0.0,0.0,87,0.00,,,0.00,397,Wunderground v.1.15,2013-09-16 13:54:00,
2013-09-16 09:58:00,72.9,69.1,29.91,WSW,245,0.0,0.0,88,0.00,,,0.00,452,Wunderground v.1.15,2013-09-16 13:58:00,
2013-09-16 09:59:00,73.0,68.9,29.91,WSW,248,0.0,0.0,87,0.00,,,0.00,452,Wunderground v.1.15,2013-09-16 13:59:00,
2013-09-16 10:00:00,73.0,68.9,29.91,WSW,248,0.0,0.0,87,0.00,,,0.00,167,Wunderground v.1.15,2013-09-16 14:00:00,
2013-09-16 10:01:00,73.1,68.7,29.91,WSW,248,0.0,0.0,86,0.00,,,0.00,167,Wunderground v.1.15,2013-09-16 14:01:00,
2013-09-16 10:02:00,73.2,68.8,29.91,SE,139,0.0,0.0,86,0.00,,,0.00,492,Wunderground v.1.15,2013-09-16 14:02:00,
2013-09-16 10:04:00,73.4,69.0,29.91,WSW,237,0.0,0.0,86,0.00,,,0.00,540,Wunderground v.1.15,2013-09-16 14:04:00,
2013-09-16 10:06:00,73.6,68.8,29.91,WSW,237,0.0,0.0,85,0.00,,,0.00,564,Wunderground v.1.15,2013-09-16 14:06:00,
2013-09-16 10:07:00,73.7,68.9,29.91,WSW,237,0.0,0.0,85,0.00,,,0.00,499,Wunderground v.1.15,2013-09-16 14:07:00,
2013-09-16 10:10:00,74.0,69.2,29.91,SW,227,0.0,0.0,85,0.00,,,0.00,563,Wunderground v.1.15,2013-09-16 14:10:00,
2013-09-16 10:11:00,74.2,69.4,29.91,SW,228,0.0,0.0,85,0.00,,,0.00,580,Wunderground v.1.15,2013-09-16 14:11:00,
2013-09-16 10:13:00,74.4,69.6,29.91,SW,228,0.0,0.0,85,0.00,,,0.00,577,Wunderground v.1.15,2013-09-16 14:13:00,
2013-09-16 10:16:00,74.9,69.7,29.91,NNW,336,0.0,0.0,84,0.00,,,0.00,585,Wunderground v.1.15,2013-09-16 14:16:00,
2013-09-16 10:19:00,75.4,69.5,29.91,NNW,336,0.0,0.0,82,0.00,,,0.00,584,Wunderground v.1.15,2013-09-16 14:19:00,
2013-09-16 10:22:00,75.7,69.8,29.91,NNW,335,0.0,0.0,82,0.00,,,0.00,589,Wunderground v.1.15,2013-09-16 14:22:00,
2013-09-16 10:23:00,75.8,69.9,29.91,NW,323,0.0,0.0,82,0.00,,,0.00,596,Wunderground v.1.15,2013-09-16 14:23:00,
2013-09-16 10:24:00,75.9,69.6,29.91,NW,323,0.0,0.0,81,0.00,,,0.00,608,Wunderground v.1.15,2013-09-16 14:24:00,
2013-09-16 10:26:00,76.1,69.8,29.91,WSW,248,0.0,0.0,81,0.00,,,0.00,608,Wunderground v.1.15,2013-09-16 14:26:00,
2013-09-16 10:30:00,76.6,70.3,29.91,WSW,248,0.0,0.0,81,0.00,,,0.00,621,Wunderground v.1.15,2013-09-16 14:30:00,
2013-09-16 10:31:00,76.7,70.1,29.91,WSW,246,0.0,0.0,80,0.00,,,0.00,606,Wunderground v.1.15,2013-09-16 14:31:00,
2013-09-16 10:32:00,76.8,70.2,29.91,East,82,0.0,1.0,80,0.00,,,0.00,601,Wunderground v.1.15,2013-09-16 14:32:00,
2013-09-16 10:33:00,77.0,70.0,29.91,South,175,0.0,1.0,79,0.00,,,0.00,561,Wunderground v.1.15,2013-09-16 14:33:00,
2013-09-16 10:35:00,77.2,69.8,29.91,SE,134,0.0,1.0,78,0.00,,,0.00,613,Wunderground v.1.15,2013-09-16 14:35:00,
2013-09-16 10:37:00,77.4,70.0,29.91,West,263,0.0,1.0,78,0.00,,,0.00,640,Wunderground v.1.15,2013-09-16 14:37:00,
2013-09-16 10:38:00,77.5,69.7,29.91,NW,325,0.0,1.0,77,0.00,,,0.00,640,Wunderground v.1.15,2013-09-16 14:38:00,
2013-09-16 10:39:00,77.5,69.7,29.91,WNW,297,0.0,1.0,77,0.00,,,0.00,638,Wunderground v.1.15,2013-09-16 14:39:00,
2013-09-16 10:42:00,77.7,69.9,29.91,SW,235,0.0,0.0,77,0.00,,,0.00,606,Wunderground v.1.15,2013-09-16 14:42:00,
2013-09-16 10:44:00,78.0,69.8,29.91,SE,140,0.0,0.0,76,0.00,,,0.00,606,Wunderground v.1.15,2013-09-16 14:44:00,
2013-09-16 10:45:00,78.0,69.8,29.91,SE,140,0.0,0.0,76,0.00,,,0.00,606,Wunderground v.1.15,2013-09-16 14:45:00,
2013-09-16 10:46:00,78.1,69.5,29.91,NNW,327,0.0,0.0,75,0.00,,,0.00,606,Wunderground v.1.15,2013-09-16 14:46:00,
2013-09-16 10:49:00,78.3,69.3,29.91,SSW,204,0.0,0.0,74,0.00,,,0.00,633,Wunderground v.1.15,2013-09-16 14:49:00,
2013-09-16 10:50:00,78.3,69.7,29.91,SSW,204,0.0,0.0,75,0.00,,,0.00,633,Wunderground v.1.15,2013-09-16 14:50:00,
2013-09-16 10:51:00,78.4,69.8,29.91,SSE,167,0.0,0.0,75,0.00,,,0.00,633,Wunderground v.1.15,2013-09-16 14:51:00,
2013-09-16 10:52:00,78.5,69.5,29.91,WSW,258,0.0,0.0,74,0.00,,,0.00,633,Wunderground v.1.15,2013-09-16 14:52:00,
2013-09-16 10:54:00,78.6,69.6,29.90,SSE,153,0.0,0.0,74,0.00,,,0.00,649,Wunderground v.1.15,2013-09-16 14:54:00,
2013-09-16 10:57:00,78.8,69.0,29.90,WSW,254,0.0,0.0,72,0.00,,,0.00,643,Wunderground v.1.15,2013-09-16 14:57:00,
2013-09-16 10:58:00,78.8,69.4,29.90,West,266,0.0,0.0,73,0.00,,,0.00,650,Wunderground v.1.15,2013-09-16 14:58:00,
2013-09-16 11:00:00,78.9,69.5,29.90,West,265,0.0,0.0,73,0.00,,,0.00,587,Wunderground v.1.15,2013-09-16 15:00:00,
2013-09-16 11:01:00,78.9,69.1,29.90,SE,138,0.0,2.0,72,0.00,,,0.00,587,Wunderground v.1.15,2013-09-16 15:01:00,
2013-09-16 11:03:00,79.1,69.7,29.91,SE,128,0.0,2.0,73,0.00,,,0.00,592,Wunderground v.1.15,2013-09-16 15:03:00,
2013-09-16 11:04:00,79.2,69.4,29.90,SW,234,0.0,2.0,72,0.00,,,0.00,592,Wunderground v.1.15,2013-09-16 15:04:00,
2013-09-16 11:06:00,79.3,69.5,29.90,SW,230,0.0,2.0,72,0.00,,,0.00,666,Wunderground v.1.15,2013-09-16 15:06:00,
2013-09-16 11:07:00,79.3,69.5,29.90,SW,230,0.0,2.0,72,0.00,,,0.00,654,Wunderground v.1.15,2013-09-16 15:07:00,
2013-09-16 11:09:00,79.5,69.7,29.90,SSW,192,0.0,2.0,72,0.00,,,0.00,657,Wunderground v.1.15,2013-09-16 15:09:00,
2013-09-16 11:13:00,79.7,69.9,29.90,SW,218,0.0,0.0,72,0.00,,,0.00,218,Wunderground v.1.15,2013-09-16 15:13:00,
2013-09-16 11:14:00,79.8,70.0,29.90,SSW,194,0.0,0.0,72,0.00,,,0.00,218,Wunderground v.1.15,2013-09-16 15:14:00,
2013-09-16 11:17:00,80.0,68.9,29.90,NW,326,0.0,2.0,69,0.00,,,0.00,438,Wunderground v.1.15,2013-09-16 15:17:00,
2013-09-16 11:18:00,80.0,68.9,29.90,NW,326,0.0,2.0,69,0.00,,,0.00,431,Wunderground v.1.15,2013-09-16 15:18:00,
2013-09-16 11:19:00,80.1,69.4,29.90,SW,220,0.0,2.0,70,0.00,,,0.00,431,Wunderground v.1.15,2013-09-16 15:19:00,
2013-09-16 11:20:00,80.1,69.4,29.90,SSW,213,0.0,2.0,70,0.00,,,0.00,285,Wunderground v.1.15,2013-09-16 15:20:00,
2013-09-16 11:24:00,80.2,69.1,29.90,South,190,1.0,4.0,69,0.00,,,0.00,292,Wunderground v.1.15,2013-09-16 15:24:00,
2013-09-16 11:25:00,80.2,69.1,29.90,SW,215,1.0,4.0,69,0.00,,,0.00,207,Wunderground v.1.15,2013-09-16 15:25:00,
2013-09-16 11:26:00,80.3,69.2,29.90,SW,225,1.0,4.0,69,0.00,,,0.00,281,Wunderground v.1.15,2013-09-16 15:26:00,
2013-09-16 11:29:00,80.3,68.8,29.90,SSW,200,1.0,4.0,68,0.00,,,0.00,559,Wunderground v.1.15,2013-09-16 15:29:00,
2013-09-16 11:30:00,80.3,69.2,29.90,SSW,200,1.0,1.0,69,0.00,,,0.00,566,Wunderground v.1.15,2013-09-16 15:30:00,
2013-09-16 11:33:00,80.5,68.1,29.90,WSW,242,1.0,1.0,66,0.00,,,0.00,578,Wunderground v.1.15,2013-09-16 15:33:00,
2013-09-16 11:36:00,80.7,68.7,29.90,WSW,243,0.0,1.0,67,0.00,,,0.00,381,Wunderground v.1.15,2013-09-16 15:36:00,
2013-09-16 11:37:00,80.7,68.7,29.90,WSW,243,0.0,1.0,67,0.00,,,0.00,381,Wunderground v.1.15,2013-09-16 15:37:00,
2013-09-16 11:38:00,80.9,68.9,29.90,WSW,243,0.0,1.0,67,0.00,,,0.00,454,Wunderground v.1.15,2013-09-16 15:38:00,
2013-09-16 11:39:00,80.9,69.3,29.90,SSE,161,0.0,1.0,68,0.00,,,0.00,454,Wunderground v.1.15,2013-09-16 15:39:00,
2013-09-16 11:40:00,81.0,69.4,29.89,WSW,257,0.0,0.0,68,0.00,,,0.00,454,Wunderground v.1.15,2013-09-16 15:40:00,
2013-09-16 11:41:00,81.1,68.7,29.90,WSW,257,0.0,0.0,66,0.00,,,0.00,543,Wunderground v.1.15,2013-09-16 15:41:00,
2013-09-16 11:43:00,81.3,68.9,29.90,WSW,257,0.0,0.0,66,0.00,,,0.00,459,Wunderground v.1.15,2013-09-16 15:43:00,
2013-09-16 11:45:00,81.5,68.1,29.89,WSW,242,0.0,0.0,64,0.00,,,0.00,427,Wunderground v.1.15,2013-09-16 15:45:00,
2013-09-16 11:47:00,81.6,67.8,29.90,WSW,242,0.0,0.0,63,0.00,,,0.00,339,Wunderground v.1.15,2013-09-16 15:47:00,
2013-09-16 11:48:00,81.6,67.8,29.90,WSW,244,0.0,0.0,63,0.00,,,0.00,339,Wunderground v.1.15,2013-09-16 15:48:00,
2013-09-16 11:49:00,81.6,67.8,29.89,WSW,250,0.0,2.0,63,0.00,,,0.00,104,Wunderground v.1.15,2013-09-16 15:49:00,
2013-09-16 11:51:00,81.7,66.9,29.89,WSW,254,0.0,0.0,61,0.00,,,0.00,179,Wunderground v.1.15,2013-09-16 15:51:00,
2013-09-16 11:53:00,81.7,66.9,29.90,NW,317,0.0,2.0,61,0.00,,,0.00,603,Wunderground v.1.15,2013-09-16 15:53:00,
2013-09-16 11:54:00,81.8,66.6,29.90,SSW,204,0.0,2.0,60,0.00,,,0.00,603,Wunderground v.1.15,2013-09-16 15:54:00,
2013-09-16 11:55:00,81.8,66.6,29.89,SSW,204,0.0,2.0,60,0.00,,,0.00,687,Wunderground v.1.15,2013-09-16 15:55:00,
2013-09-16 11:57:00,81.8,66.1,29.89,WSW,241,0.0,2.0,59,0.00,,,0.00,687,Wunderground v.1.15,2013-09-16 15:57:00,
2013-09-16 11:59:00,81.8,65.6,29.89,NW,325,0.0,2.0,58,0.00,,,0.00,197,Wunderground v.1.15,2013-09-16 15:59:00,
2013-09-16 12:03:00,82.0,66.7,29.89,South,182,0.0,0.0,60,0.00,,,0.00,239,Wunderground v.1.15,2013-09-16 16:03:00,
2013-09-16 12:04:00,82.1,67.3,29.89,ESE,111,0.0,0.0,61,0.00,,,0.00,165,Wunderground v.1.15,2013-09-16 16:04:00,
2013-09-16 12:05:00,82.2,66.9,29.89,ESE,111,0.0,0.0,60,0.00,,,0.00,211,Wunderground v.1.15,2013-09-16 16:05:00,
2013-09-16 12:06:00,82.2,66.4,29.89,NW,309,0.0,0.0,59,0.00,,,0.00,250,Wunderground v.1.15,2013-09-16 16:06:00,
2013-09-16 12:08:00,82.3,65.5,29.89,WSW,257,0.0,0.0,57,0.00,,,0.00,163,Wunderground v.1.15,2013-09-16 16:08:00,
2013-09-16 12:09:00,82.3,65.5,29.89,WSW,257,0.0,0.0,57,0.00,,,0.00,139,Wunderground v.1.15,2013-09-16 16:09:00,
2013-09-16 12:11:00,82.3,66.0,29.89,SSW,198,0.0,0.0,58,0.00,,,0.00,118,Wunderground v.1.15,2013-09-16 16:11:00,
2013-09-16 12:12:00,82.4,66.6,29.89,SSW,198,0.0,0.0,59,0.00,,,0.00,120,Wunderground v.1.15,2013-09-16 16:12:00,
2013-09-16 12:14:00,82.4,66.6,29.89,NW,310,0.0,1.0,59,0.00,,,0.00,125,Wunderground v.1.15,2013-09-16 16:14:00,
2013-09-16 12:16:00,82.5,65.7,29.89,ESE,103,0.0,3.0,57,0.00,,,0.00,141,Wunderground v.1.15,2013-09-16 16:16:00,
2013-09-16 12:17:00,82.5,65.7,29.89,SW,218,0.0,3.0,57,0.00,,,0.00,139,Wunderground v.1.15,2013-09-16 16:17:00,
2013-09-16 12:18:00,82.5,65.7,29.89,SSW,204,0.0,3.0,57,0.00,,,0.00,139,Wunderground v.1.15,2013-09-16 16:18:00,
2013-09-16 12:19:00,82.6,65.8,29.89,WNW,290,0.0,3.0,57,0.00,,,0.00,135,Wunderground v.1.15,2013-09-16 16:19:00,
2013-09-16 12:21:00,82.6,65.3,29.89,WNW,282,0.0,1.0,56,0.00,,,0.00,116,Wunderground v.1.15,2013-09-16 16:21:00,
2013-09-16 12:22:00,82.7,65.4,29.89,NW,320,0.0,1.0,56,0.00,,,0.00,107,Wunderground v.1.15,2013-09-16 16:22:00,
2013-09-16 12:26:00,82.7,64.4,29.88,NNW,327,0.0,1.0,54,0.00,,,0.00,100,Wunderground v.1.15,2013-09-16 16:26:00,
2013-09-16 12:27:00,82.7,64.4,29.89,WNW,282,0.0,1.0,54,0.00,,,0.00,107,Wunderground v.1.15,2013-09-16 16:27:00,
2013-09-16 12:29:00,82.7,65.4,29.89,SW,224,0.0,1.0,56,0.00,,,0.00,116,Wunderground v.1.15,2013-09-16 16:29:00,
2013-09-16 12:30:00,82.6,65.8,29.89,West,261,0.0,0.0,57,0.00,,,0.00,127,Wunderground v.1.15,2013-09-16 16:30:00,
2013-09-16 12:31:00,82.7,65.9,29.89,NNW,331,0.0,0.0,57,0.00,,,0.00,132,Wunderground v.1.15,2013-09-16 16:31:00,
2013-09-16 12:34:00,82.6,65.3,29.89,NNW,344,0.0,2.0,56,0.00,,,0.00,149,Wunderground v.1.15,2013-09-16 16:34:00,
2013-09-16 12:35:00,82.6,65.3,29.88,NNW,343,0.0,2.0,56,0.00,,,0.00,137,Wunderground v.1.15,2013-09-16 16:35:00,
2013-09-16 12:36:00,82.6,65.3,29.88,NNW,343,0.0,2.0,56,0.00,,,0.00,102,Wunderground v.1.15,2013-09-16 16:36:00,
2013-09-16 12:39:00,82.5,64.7,29.88,NNW,331,0.0,2.0,55,0.00,,,0.00,81,Wunderground v.1.15,2013-09-16 16:39:00,
2013-09-16 12:41:00,82.3,64.5,29.88,NNW,329,1.0,1.0,55,0.00,,,0.00,120,Wunderground v.1.15,2013-09-16 16:41:00,
2013-09-16 12:44:00,82.1,64.8,29.88,NNW,329,1.0,1.0,56,0.00,,,0.00,202,Wunderground v.1.15,2013-09-16 16:44:00,
2013-09-16 12:45:00,82.1,65.4,29.88,SSW,210,1.0,1.0,57,0.00,,,0.00,200,Wunderground v.1.15,2013-09-16 16:45:00,
2013-09-16 12:46:00,82.1,65.9,29.88,SSW,210,1.0,1.0,58,0.00,,,0.00,172,Wunderground v.1.15,2013-09-16 16:46:00,
2013-09-16 12:49:00,82.3,65.0,29.88,NW,323,0.0,1.0,56,0.00,,,0.00,114,Wunderground v.1.15,2013-09-16 16:49:00,
2013-09-16 12:51:00,82.4,65.1,29.88,NW,323,0.0,0.0,56,0.00,,,0.00,139,Wunderground v.1.15,2013-09-16 16:51:00,
2013-09-16 12:52:00,82.4,64.1,29.88,NNW,338,0.0,0.0,54,0.00,,,0.00,114,Wunderground v.1.15,2013-09-16 16:52:00,
2013-09-16 12:54:00,82.3,64.0,29.88,NNW,330,0.0,0.0,54,0.00,,,0.00,100,Wunderground v.1.15,2013-09-16 16:54:00,
2013-09-16 12:56:00,82.3,64.0,29.88,NNW,330,0.0,0.0,54,0.00,,,0.00,100,Wunderground v.1.15,2013-09-16 16:56:00,
2013-09-16 13:01:00,82.2,64.4,29.87,SW,214,0.0,2.0,55,0.00,,,0.00,111,Wunderground v.1.15,2013-09-16 17:01:00,
2013-09-16 13:02:00,82.2,64.4,29.87,SW,214,0.0,2.0,55,0.00,,,0.00,114,Wunderground v.1.15,2013-09-16 17:02:00,
2013-09-16 13:03:00,82.2,64.4,29.87,West,262,0.0,2.0,55,0.00,,,0.00,114,Wunderground v.1.15,2013-09-16 17:03:00,
2013-09-16 13:04:00,82.3,64.5,29.87,WNW,286,0.0,2.0,55,0.00,,,0.00,102,Wunderground v.1.15,2013-09-16 17:04:00,
2013-09-16 13:06:00,82.4,64.1,29.87,WNW,297,0.0,2.0,54,0.00,,,0.00,63,Wunderground v.1.15,2013-09-16 17:06:00,
2013-09-16 13:07:00,82.5,63.6,29.88,SW,215,0.0,2.0,53,0.00,,,0.00,63,Wunderground v.1.15,2013-09-16 17:07:00,
2013-09-16 13:08:00,82.5,63.6,29.87,West,269,0.0,2.0,53,0.00,,,0.00,72,Wunderground v.1.15,2013-09-16 17:08:00,
2013-09-16 13:11:00,82.5,63.1,29.87,West,280,0.0,1.0,52,0.00,,,0.00,130,Wunderground v.1.15,2013-09-16 17:11:00,
2013-09-16 13:13:00,82.6,63.7,29.87,East,97,0.0,1.0,53,0.00,,,0.00,130,Wunderground v.1.15,2013-09-16 17:13:00,
2013-09-16 13:15:00,82.7,63.3,29.87,NNW,342,0.0,1.0,52,0.00,,,0.00,160,Wunderground v.1.15,2013-09-16 17:15:00,
2013-09-16 13:17:00,82.8,64.5,29.87,East,91,0.0,1.0,54,0.00,,,0.00,179,Wunderground v.1.15,2013-09-16 17:17:00,
2013-09-16 13:19:00,83.1,64.2,29.87,NW,304,1.0,3.0,53,0.00,,,0.00,181,Wunderground v.1.15,2013-09-16 17:19:00,
2013-09-16 13:20:00,83.2,64.3,29.87,NW,319,1.0,1.0,53,0.00,,,0.00,172,Wunderground v.1.15,2013-09-16 17:20:00,
2013-09-16 13:21:00,83.2,64.3,29.87,NNW,328,1.0,2.0,53,0.00,,,0.00,142,Wunderground v.1.15,2013-09-16 17:21:00,
2013-09-16 13:22:00,83.2,62.1,29.87,NW,306,1.0,2.0,49,0.00,,,0.00,118,Wunderground v.1.15,2013-09-16 17:22:00,
2013-09-16 13:24:00,83.2,63.2,29.87,NNW,327,1.0,2.0,51,0.00,,,0.00,90,Wunderground v.1.15,2013-09-16 17:24:00,
2013-09-16 13:25:00,83.1,63.1,29.88,NW,322,1.0,2.0,51,0.00,,,0.00,132,Wunderground v.1.15,2013-09-16 17:25:00,
2013-09-16 13:26:00,83.1,63.7,29.88,NW,309,1.0,2.0,52,0.00,,,0.00,132,Wunderground v.1.15,2013-09-16 17:26:00,
2013-09-16 13:27:00,83.1,64.2,29.87,WSW,254,1.0,2.0,53,0.00,,,0.00,149,Wunderground v.1.15,2013-09-16 17:27:00,
2013-09-16 13:28:00,83.1,64.2,29.87,WNW,286,1.0,2.0,53,0.00,,,0.00,156,Wunderground v.1.15,2013-09-16 17:28:00,
2013-09-16 13:32:00,83.2,64.3,29.88,NW,306,0.0,0.0,53,0.00,,,0.00,120,Wunderground v.1.15,2013-09-16 17:32:00,
2013-09-16 13:33:00,83.2,63.7,29.88,NW,325,0.0,0.0,52,0.00,,,0.00,125,Wunderground v.1.15,2013-09-16 17:33:00,
2013-09-16 13:34:00,83.2,64.3,29.88,NW,324,0.0,0.0,53,0.00,,,0.00,134,Wunderground v.1.15,2013-09-16 17:34:00,
2013-09-16 13:35:00,83.2,64.3,29.88,NW,325,0.0,0.0,53,0.00,,,0.00,153,Wunderground v.1.15,2013-09-16 17:35:00,
2013-09-16 13:36:00,83.2,64.3,29.88,NW,324,0.0,0.0,53,0.00,,,0.00,144,Wunderground v.1.15,2013-09-16 17:36:00,
2013-09-16 13:39:00,83.1,64.7,29.88,West,278,0.0,0.0,54,0.00,,,0.00,148,Wunderground v.1.15,2013-09-16 17:39:00,
2013-09-16 13:40:00,83.1,64.2,29.88,NW,313,0.0,0.0,53,0.00,,,0.00,137,Wunderground v.1.15,2013-09-16 17:40:00,
2013-09-16 13:41:00,83.1,64.2,29.87,NNW,331,0.0,0.0,53,0.00,,,0.00,137,Wunderground v.1.15,2013-09-16 17:41:00,
2013-09-16 13:43:00,83.1,64.2,29.88,NW,320,0.0,0.0,53,0.00,,,0.00,130,Wunderground v.1.15,2013-09-16 17:43:00,
2013-09-16 13:45:00,83.0,63.0,29.88,NW,315,0.0,4.0,51,0.00,,,0.00,139,Wunderground v.1.15,2013-09-16 17:45:00,
2013-09-16 13:46:00,82.9,64.0,29.88,NNW,336,0.0,4.0,53,0.00,,,0.00,144,Wunderground v.1.15,2013-09-16 17:46:00,
2013-09-16 13:47:00,82.9,64.0,29.88,NNW,327,1.0,4.0,53,0.00,,,0.00,142,Wunderground v.1.15,2013-09-16 17:47:00,
2013-09-16 13:48:00,82.8,63.9,29.88,WNW,286,1.0,4.0,53,0.00,,,0.00,139,Wunderground v.1.15,2013-09-16 17:48:00,
2013-09-16 13:50:00,82.6,63.7,29.88,South,184,1.0,1.0,53,0.00,,,0.00,135,Wunderground v.1.15,2013-09-16 17:50:00,
2013-09-16 13:52:00,82.6,64.3,29.88,NW,321,1.0,1.0,54,0.00,,,0.00,155,Wunderground v.1.15,2013-09-16 17:52:00,
2013-09-16 13:53:00,82.6,64.8,29.88,NW,321,1.0,1.0,55,0.00,,,0.00,135,Wunderground v.1.15,2013-09-16 17:53:00,
2013-09-16 13:55:00,82.6,64.8,29.88,WNW,285,0.0,1.0,55,0.00,,,0.00,121,Wunderground v.1.15,2013-09-16 17:55:00,
2013-09-16 13:56:00,82.6,65.3,29.87,WNW,285,0.0,1.0,56,0.00,,,0.00,125,Wunderground v.1.15,2013-09-16 17:56:00,
2013-09-16 13:59:00,82.7,64.4,29.87,WNW,294,0.0,1.0,54,0.00,,,0.00,137,Wunderground v.1.15,2013-09-16 17:59:00,
2013-09-16 14:01:00,82.8,65.0,29.87,WNW,289,0.0,0.0,55,0.00,,,0.00,167,Wunderground v.1.15,2013-09-16 18:01:00,
2013-09-16 14:02:00,82.8,65.0,29.87,WNW,291,0.0,1.0,55,0.00,,,0.00,181,Wunderground v.1.15,2013-09-16 18:02:00,
2013-09-16 14:03:00,82.9,65.1,29.87,WSW,237,0.0,2.0,55,0.00,,,0.00,192,Wunderground v.1.15,2013-09-16 18:03:00,
2013-09-16 14:05:00,83.0,64.6,29.87,West,263,0.0,2.0,54,0.00,,,0.00,186,Wunderground v.1.15,2013-09-16 18:05:00,
2013-09-16 14:06:00,83.2,64.8,29.87,WNW,300,0.0,2.0,54,0.00,,,0.00,178,Wunderground v.1.15,2013-09-16 18:06:00,
2013-09-16 14:07:00,83.2,64.3,29.87,NNW,337,0.0,4.0,53,0.00,,,0.00,134,Wunderground v.1.15,2013-09-16 18:07:00,
2013-09-16 14:08:00,83.2,64.3,29.87,NW,324,0.0,4.0,53,0.00,,,0.00,128,Wunderground v.1.15,2013-09-16 18:08:00,
2013-09-16 14:11:00,83.3,64.4,29.87,NNW,327,1.0,1.0,53,0.00,,,0.00,118,Wunderground v.1.15,2013-09-16 18:11:00,
2013-09-16 14:12:00,83.3,64.4,29.87,NW,313,1.0,1.0,53,0.00,,,0.00,127,Wunderground v.1.15,2013-09-16 18:12:00,
2013-09-16 14:13:00,83.3,64.9,29.87,NW,311,1.0,1.0,54,0.00,,,0.00,127,Wunderground v.1.15,2013-09-16 18:13:00,
2013-09-16 14:14:00,83.3,64.9,29.87,West,279,1.0,1.0,54,0.00,,,0.00,135,Wunderground v.1.15,2013-09-16 18:14:00,
2013-09-16 14:16:00,83.3,65.4,29.87,WNW,283,1.0,1.0,55,0.00,,,0.00,146,Wunderground v.1.15,2013-09-16 18:16:00,
2013-09-16 14:17:00,83.3,65.4,29.87,WNW,283,1.0,1.0,55,0.00,,,0.00,139,Wunderground v.1.15,2013-09-16 18:17:00,
2013-09-16 14:18:00,83.3,66.0,29.87,NW,309,0.0,1.0,56,0.00,,,0.00,127,Wunderground v.1.15,2013-09-16 18:18:00,
2013-09-16 14:21:00,83.3,65.4,29.87,NNW,335,0.0,0.0,55,0.00,,,0.00,121,Wunderground v.1.15,2013-09-16 18:21:00,
2013-09-16 14:22:00,83.2,65.4,29.88,NNW,329,0.0,0.0,55,0.00,,,0.00,123,Wunderground v.1.15,2013-09-16 18:22:00,
2013-09-16 14:23:00,83.2,65.4,29.87,NW,321,0.0,0.0,55,0.00,,,0.00,125,Wunderground v.1.15,2013-09-16 18:23:00,
2013-09-16 14:26:00,82.9,65.1,29.87,NW,324,0.0,0.0,55,0.00,,,0.00,130,Wunderground v.1.15,2013-09-16 18:26:00,
2013-09-16 14:27:00,82.8,65.0,29.87,NW,323,0.0,0.0,55,0.00,,,0.00,149,Wunderground v.1.15,2013-09-16 18:27:00,
2013-09-16 14:28:00,82.7,64.9,29.87,NNW,344,0.0,0.0,55,0.00,,,0.00,169,Wunderground v.1.15,2013-09-16 18:28:00,
2013-09-16 14:29:00,82.6,65.3,29.87,NW,322,0.0,2.0,56,0.00,,,0.00,144,Wunderground v.1.15,2013-09-16 18:29:00,
2013-09-16 14:30:00,82.6,64.8,29.87,NW,322,0.0,0.0,55,0.00,,,0.00,144,Wunderground v.1.15,2013-09-16 18:30:00,
2013-09-16 14:33:00,82.4,65.6,29.86,NW,323,0.0,0.0,57,0.00,,,0.00,142,Wunderground v.1.15,2013-09-16 18:33:00,
2013-09-16 14:35:00,82.3,65.5,29.86,WNW,298,0.0,2.0,57,0.00,,,0.00,139,Wunderground v.1.15,2013-09-16 18:35:00,
2013-09-16 14:37:00,82.2,64.9,29.86,NNW,336,1.0,3.0,56,0.00,,,0.00,121,Wunderground v.1.15,2013-09-16 18:37:00,
2013-09-16 14:39:00,82.0,65.3,29.86,NW,326,1.0,3.0,57,0.00,,,0.00,123,Wunderground v.1.15,2013-09-16 18:39:00,
2013-09-16 14:43:00,81.8,64.6,29.87,West,281,1.0,1.0,56,0.00,,,0.00,134,Wunderground v.1.15,2013-09-16 18:43:00,
2013-09-16 14:44:00,81.8,64.1,29.87,West,274,1.0,1.0,55,0.00,,,0.00,132,Wunderground v.1.15,2013-09-16 18:44:00,
2013-09-16 14:45:00,81.8,64.1,29.87,WNW,291,1.0,1.0,55,0.00,,,0.00,130,Wunderground v.1.15,2013-09-16 18:45:00,
2013-09-16 14:48:00,81.7,64.0,29.86,WNW,286,0.0,1.0,55,0.00,,,0.00,139,Wunderground v.1.15,2013-09-16 18:48:00,
2013-09-16 14:49:00,81.7,64.5,29.86,WNW,286,0.0,1.0,56,0.00,,,0.00,134,Wunderground v.1.15,2013-09-16 18:49:00,
2013-09-16 14:52:00,81.8,65.1,29.86,WNW,287,0.0,0.0,57,0.00,,,0.00,125,Wunderground v.1.15,2013-09-16 18:52:00,
2013-09-16 14:54:00,81.8,65.1,29.86,NW,304,0.0,0.0,57,0.00,,,0.00,121,Wunderground v.1.15,2013-09-16 18:54:00,
2013-09-16 14:55:00,81.8,64.6,29.86,NW,309,0.0,0.0,56,0.00,,,0.00,118,Wunderground v.1.15,2013-09-16 18:55:00,
2013-09-16 14:56:00,81.8,64.6,29.86,NW,311,0.0,0.0,56,0.00,,,0.00,116,Wunderground v.1.15,2013-09-16 18:56:00,
2013-09-16 14:57:00,81.8,64.6,29.86,NNW,331,0.0,0.0,56,0.00,,,0.00,114,Wunderground v.1.15,2013-09-16 18:57:00,
2013-09-16 14:59:00,81.7,64.0,29.86,NW,320,0.0,2.0,55,0.00,,,0.00,114,Wunderground v.1.15,2013-09-16 18:59:00,
2013-09-16 15:00:00,81.6,63.9,29.86,NNW,332,0.0,0.0,55,0.00,,,0.00,116,Wunderground v.1.15,2013-09-16 19:00:00,
2013-09-16 15:02:00,81.5,63.3,29.86,NNW,332,0.0,0.0,54,0.00,,,0.00,114,Wunderground v.1.15,2013-09-16 19:02:00,
2013-09-16 15:04:00,81.5,63.8,29.86,NW,321,0.0,0.0,55,0.00,,,0.00,113,Wunderground v.1.15,2013-09-16 19:04:00,
2013-09-16 15:05:00,81.5,64.3,29.86,West,269,0.0,0.0,56,0.00,,,0.00,109,Wunderground v.1.15,2013-09-16 19:05:00,
2013-09-16 15:08:00,81.4,63.7,29.86,West,267,0.0,1.0,55,0.00,,,0.00,90,Wunderground v.1.15,2013-09-16 19:08:00,
2013-09-16 15:09:00,81.4,63.7,29.86,NW,313,0.0,1.0,55,0.00,,,0.00,84,Wunderground v.1.15,2013-09-16 19:09:00,
2013-09-16 15:10:00,81.4,63.7,29.86,NW,320,0.0,0.0,55,0.00,,,0.00,81,Wunderground v.1.15,2013-09-16 19:10:00,
2013-09-16 15:11:00,81.3,63.6,29.86,North,355,0.0,1.0,55,0.00,,,0.00,76,Wunderground v.1.15,2013-09-16 19:11:00,
2013-09-16 15:12:00,81.3,63.1,29.86,NNW,330,0.0,2.0,54,0.00,,,0.00,76,Wunderground v.1.15,2013-09-16 19:12:00,
2013-09-16 15:14:00,81.1,63.4,29.86,West,275,0.0,2.0,55,0.00,,,0.00,79,Wunderground v.1.15,2013-09-16 19:14:00,
2013-09-16 15:15:00,81.1,63.4,29.86,NW,325,0.0,2.0,55,0.00,,,0.00,81,Wunderground v.1.15,2013-09-16 19:15:00,
2013-09-16 15:16:00,81.0,63.3,29.86,WNW,300,0.0,2.0,55,0.00,,,0.00,81,Wunderground v.1.15,2013-09-16 19:16:00,
2013-09-16 15:19:00,80.8,63.6,29.86,NNW,331,0.0,2.0,56,0.00,,,0.00,84,Wunderground v.1.15,2013-09-16 19:19:00,
2013-09-16 15:20:00,80.7,63.5,29.86,NNW,331,0.0,0.0,56,0.00,,,0.00,86,Wunderground v.1.15,2013-09-16 19:20:00,
2013-09-16 15:21:00,80.7,63.5,29.86,NNW,331,0.0,0.0,56,0.00,,,0.00,88,Wunderground v.1.15,2013-09-16 19:21:00,
2013-09-16 15:23:00,80.5,63.4,29.86,NW,317,0.0,0.0,56,0.00,,,0.00,90,Wunderground v.1.15,2013-09-16 19:23:00,
2013-09-16 15:25:00,80.4,63.3,29.86,NW,315,0.0,0.0,56,0.00,,,0.00,86,Wunderground v.1.15,2013-09-16 19:25:00,
2013-09-16 15:26:00,80.3,63.7,29.86,NNW,329,0.0,3.0,57,0.00,,,0.00,83,Wunderground v.1.15,2013-09-16 19:26:00,
2013-09-16 15:28:00,80.1,64.0,29.86,NW,324,0.0,3.0,58,0.00,,,0.00,72,Wunderground v.1.15,2013-09-16 19:28:00,
2013-09-16 15:29:00,80.0,64.4,29.86,NNW,327,0.0,3.0,59,0.00,,,0.00,69,Wunderground v.1.15,2013-09-16 19:29:00,
2013-09-16 15:32:00,79.8,65.2,29.86,NW,320,0.0,0.0,61,0.00,,,0.00,65,Wunderground v.1.15,2013-09-16 19:32:00,
2013-09-16 15:33:00,79.7,65.5,29.86,NW,320,0.0,0.0,62,0.00,,,0.00,65,Wunderground v.1.15,2013-09-16 19:33:00,
2013-09-16 15:34:00,79.5,65.3,29.86,WNW,302,1.0,2.0,62,0.00,,,0.00,65,Wunderground v.1.15,2013-09-16 19:34:00,
2013-09-16 15:35:00,79.4,65.7,29.86,NNW,347,1.0,2.0,63,0.00,,,0.00,67,Wunderground v.1.15,2013-09-16 19:35:00,
2013-09-16 15:37:00,79.1,65.9,29.87,NNW,331,1.0,2.0,64,0.00,,,0.00,70,Wunderground v.1.15,2013-09-16 19:37:00,
2013-09-16 15:39:00,78.8,66.5,29.87,NNW,342,1.0,4.0,66,0.00,,,0.00,76,Wunderground v.1.15,2013-09-16 19:39:00,
2013-09-16 15:40:00,78.6,66.3,29.87,NNW,336,1.0,4.0,66,0.00,,,0.00,81,Wunderground v.1.15,2013-09-16 19:40:00,
2013-09-16 15:41:00,78.4,66.1,29.87,NW,325,1.0,4.0,66,0.00,,,0.00,83,Wunderground v.1.15,2013-09-16 19:41:00,
2013-09-16 15:43:00,78.0,66.2,29.87,NNW,332,1.0,4.0,67,0.00,,,0.00,102,Wunderground v.1.15,2013-09-16 19:43:00,
2013-09-16 15:44:00,77.8,66.0,29.87,NW,315,1.0,4.0,67,0.00,,,0.00,95,Wunderground v.1.15,2013-09-16 19:44:00,
2013-09-16 15:48:00,77.0,65.6,29.87,NE,35,1.0,4.0,68,0.00,,,0.00,97,Wunderground v.1.15,2013-09-16 19:48:00,
2013-09-16 15:51:00,76.7,65.3,29.88,NW,319,1.0,1.0,68,0.00,,,0.00,86,Wunderground v.1.15,2013-09-16 19:51:00,
2013-09-16 15:53:00,76.6,65.7,29.87,NW,319,1.0,1.0,69,0.00,,,0.00,84,Wunderground v.1.15,2013-09-16 19:53:00,
2013-09-16 15:55:00,76.5,65.6,29.87,NNW,327,1.0,4.0,69,0.00,,,0.00,86,Wunderground v.1.15,2013-09-16 19:55:00,
2013-09-16 15:59:00,76.1,66.0,29.88,NNW,344,1.0,4.0,71,0.00,,,0.00,88,Wunderground v.1.15,2013-09-16 19:59:00,
2013-09-16 16:00:00,76.1,66.0,29.88,NW,319,1.0,1.0,71,0.00,,,0.00,98,Wunderground v.1.15,2013-09-16 20:00:00,
2013-09-16 16:03:00,76.0,65.9,29.88,NNW,340,1.0,1.0,71,0.00,,,0.00,113,Wunderground v.1.15,2013-09-16 20:03:00,
2013-09-16 16:04:00,76.0,65.9,29.88,NNW,340,1.0,1.0,71,0.00,,,0.00,111,Wunderground v.1.15,2013-09-16 20:04:00,
2013-09-16 16:05:00,75.9,66.2,29.88,NNW,342,0.0,1.0,72,0.00,,,0.00,109,Wunderground v.1.15,2013-09-16 20:05:00,
2013-09-16 16:06:00,75.9,66.2,29.88,NW,320,0.0,1.0,72,0.00,,,0.00,107,Wunderground v.1.15,2013-09-16 20:06:00,
2013-09-16 16:09:00,75.8,66.1,29.88,NW,325,0.0,1.0,72,0.00,,,0.00,111,Wunderground v.1.15,2013-09-16 20:09:00,
2013-09-16 16:10:00,75.8,66.1,29.88,NW,325,0.0,1.0,72,0.00,,,0.00,118,Wunderground v.1.15,2013-09-16 20:10:00,
2013-09-16 16:13:00,75.7,66.0,29.88,NW,323,0.0,1.0,72,0.00,,,0.00,113,Wunderground v.1.15,2013-09-16 20:13:00,
2013-09-16 16:14:00,75.7,66.0,29.88,NW,326,0.0,2.0,72,0.00,,,0.00,121,Wunderground v.1.15,2013-09-16 20:14:00,
2013-09-16 16:15:00,75.7,66.0,29.88,North,9,1.0,2.0,72,0.00,,,0.00,111,Wunderground v.1.15,2013-09-16 20:15:00,
2013-09-16 16:16:00,75.7,66.0,29.88,NW,309,1.0,3.0,72,0.00,,,0.00,116,Wunderground v.1.15,2013-09-16 20:16:00,
2013-09-16 16:19:00,75.6,65.9,29.88,NNW,327,1.0,4.0,72,0.00,,,0.00,88,Wunderground v.1.15,2013-09-16 20:19:00,
2013-09-16 16:23:00,75.4,65.7,29.88,NNW,338,1.0,2.0,72,0.00,,,0.00,81,Wunderground v.1.15,2013-09-16 20:23:00,
2013-09-16 16:24:00,75.4,66.1,29.88,North,351,1.0,2.0,73,0.00,,,0.00,79,Wunderground v.1.15,2013-09-16 20:24:00,
2013-09-16 16:25:00,75.3,66.0,29.89,NNW,338,1.0,2.0,73,0.00,,,0.00,74,Wunderground v.1.15,2013-09-16 20:25:00,
2013-09-16 16:26:00,75.3,66.0,29.88,NNW,338,1.0,2.0,73,0.00,,,0.00,74,Wunderground v.1.15,2013-09-16 20:26:00,
2013-09-16 16:27:00,75.2,65.9,29.88,NNW,338,1.0,2.0,73,0.00,,,0.00,72,Wunderground v.1.15,2013-09-16 20:27:00,
2013-09-16 16:28:00,75.2,65.9,29.88,ENE,57,1.0,2.0,73,0.00,,,0.00,69,Wunderground v.1.15,2013-09-16 20:28:00,
2013-09-16 16:31:00,75.1,65.9,29.88,NW,321,0.0,2.0,73,0.00,,,0.00,60,Wunderground v.1.15,2013-09-16 20:31:00,
2013-09-16 16:32:00,75.0,65.8,29.88,NNW,329,0.0,2.0,73,0.00,,,0.00,56,Wunderground v.1.15,2013-09-16 20:32:00,
2013-09-16 16:33:00,74.9,65.7,29.88,NW,323,0.0,3.0,73,0.00,,,0.00,56,Wunderground v.1.15,2013-09-16 20:33:00,
2013-09-16 16:34:00,74.8,65.6,29.88,NW,324,0.0,3.0,73,0.00,,,0.00,56,Wunderground v.1.15,2013-09-16 20:34:00,
2013-09-16 16:36:00,74.7,65.9,29.88,NW,324,0.0,3.0,74,0.00,,,0.00,56,Wunderground v.1.15,2013-09-16 20:36:00,
2013-09-16 16:39:00,74.5,65.7,29.88,NW,324,0.0,3.0,74,0.00,,,0.00,54,Wunderground v.1.15,2013-09-16 20:39:00,
2013-09-16 16:40:00,74.4,65.6,29.88,NW,321,0.0,5.0,74,0.00,,,0.00,54,Wunderground v.1.15,2013-09-16 20:40:00,
2013-09-16 16:41:00,74.4,65.6,29.88,NNW,330,1.0,5.0,74,0.00,,,0.00,58,Wunderground v.1.15,2013-09-16 20:41:00,
2013-09-16 16:42:00,74.3,65.5,29.88,NNW,330,0.0,5.0,74,0.00,,,0.00,60,Wunderground v.1.15,2013-09-16 20:42:00,
2013-09-16 16:45:00,74.2,65.4,29.88,NNW,329,0.0,5.0,74,0.00,,,0.00,63,Wunderground v.1.15,2013-09-16 20:45:00,
2013-09-16 16:47:00,74.1,65.3,29.88,NNE,14,0.0,5.0,74,0.00,,,0.00,63,Wunderground v.1.15,2013-09-16 20:47:00,
2013-09-16 16:48:00,74.0,65.2,29.89,NNE,14,0.0,5.0,74,0.00,,,0.00,63,Wunderground v.1.15,2013-09-16 20:48:00,
2013-09-16 16:49:00,74.0,65.6,29.89,NNE,14,0.0,5.0,75,0.00,,,0.00,63,Wunderground v.1.15,2013-09-16 20:49:00,
2013-09-16 16:50:00,74.0,65.6,29.89,NNE,14,0.0,1.0,75,0.00,,,0.00,63,Wunderground v.1.15,2013-09-16 20:50:00,
2013-09-16 16:52:00,73.9,65.5,29.89,NNE,14,0.0,1.0,75,0.00,,,0.00,69,Wunderground v.1.15,2013-09-16 20:52:00,
2013-09-16 16:53:00,73.9,65.1,29.89,NNE,14,0.0,1.0,74,0.00,,,0.00,70,Wunderground v.1.15,2013-09-16 20:53:00,
2013-09-16 16:55:00,73.8,65.0,29.89,NNE,14,0.0,1.0,74,0.00,,,0.00,69,Wunderground v.1.15,2013-09-16 20:55:00,
2013-09-16 16:57:00,73.8,65.4,29.89,NNW,329,0.0,2.0,75,0.00,,,0.00,69,Wunderground v.1.15,2013-09-16 20:57:00,
2013-09-16 17:00:00,73.6,65.2,29.89,NNW,329,0.0,1.0,75,0.00,,,0.00,62,Wunderground v.1.15,2013-09-16 21:00:00,
2013-09-16 17:01:00,73.6,65.6,29.89,NW,317,0.0,3.0,76,0.00,,,0.00,54,Wunderground v.1.15,2013-09-16 21:01:00,
2013-09-16 17:04:00,73.5,65.5,29.89,NNW,329,0.0,3.0,76,0.00,,,0.00,30,Wunderground v.1.15,2013-09-16 21:04:00,
2013-09-16 17:05:00,73.4,65.0,29.89,NNW,333,0.0,3.0,75,0.00,,,0.00,32,Wunderground v.1.15,2013-09-16 21:05:00,
2013-09-16 17:06:00,73.3,64.9,29.89,NW,325,0.0,3.0,75,0.00,,,0.00,35,Wunderground v.1.15,2013-09-16 21:06:00,
2013-09-16 17:10:00,72.9,64.9,29.89,NW,323,0.0,1.0,76,0.00,,,0.00,37,Wunderground v.1.15,2013-09-16 21:10:00,
2013-09-16 17:11:00,72.9,64.9,29.89,NW,323,0.0,1.0,76,0.00,,,0.00,53,Wunderground v.1.15,2013-09-16 21:11:00,
2013-09-16 17:12:00,72.8,64.8,29.90,NW,323,0.0,1.0,76,0.00,,,0.00,60,Wunderground v.1.15,2013-09-16 21:12:00,
2013-09-16 17:16:00,72.8,64.8,29.89,NNW,327,0.0,1.0,76,0.00,,,0.00,54,Wunderground v.1.15,2013-09-16 21:16:00,
2013-09-16 17:17:00,72.8,64.8,29.90,NNW,329,0.0,1.0,76,0.00,,,0.00,60,Wunderground v.1.15,2013-09-16 21:17:00,
2013-09-16 17:18:00,72.8,64.8,29.90,NNW,339,0.0,3.0,76,0.00,,,0.00,58,Wunderground v.1.15,2013-09-16 21:18:00,
2013-09-16 17:19:00,72.8,64.8,29.90,NW,321,0.0,4.0,76,0.00,,,0.00,47,Wunderground v.1.15,2013-09-16 21:19:00,
2013-09-16 17:21:00,72.8,64.8,29.89,NW,322,0.0,1.0,76,0.00,,,0.00,54,Wunderground v.1.15,2013-09-16 21:21:00,
2013-09-16 17:22:00,72.8,64.8,29.90,NW,319,0.0,1.0,76,0.00,,,0.00,53,Wunderground v.1.15,2013-09-16 21:22:00,
2013-09-16 17:24:00,72.8,64.8,29.90,NW,320,0.0,1.0,76,0.00,,,0.00,51,Wunderground v.1.15,2013-09-16 21:24:00,
2013-09-16 17:26:00,72.9,64.9,29.90,NW,321,0.0,1.0,76,0.00,,,0.00,35,Wunderground v.1.15,2013-09-16 21:26:00,
2013-09-16 17:27:00,73.0,65.0,29.90,NNW,328,0.0,1.0,76,0.00,,,0.00,33,Wunderground v.1.15,2013-09-16 21:27:00,
2013-09-16 17:28:00,73.0,65.0,29.89,NNW,332,0.0,1.0,76,0.00,,,0.00,28,Wunderground v.1.15,2013-09-16 21:28:00,
2013-09-16 17:32:00,73.2,65.2,29.90,NNW,338,0.0,1.0,76,0.00,,,0.00,44,Wunderground v.1.15,2013-09-16 21:32:00,
2013-09-16 17:33:00,73.2,65.2,29.90,NNW,338,0.0,1.0,76,0.00,,,0.00,49,Wunderground v.1.15,2013-09-16 21:33:00,
2013-09-16 17:35:00,73.2,64.8,29.90,NNW,338,0.0,1.0,75,0.00,,,0.00,30,Wunderground v.1.15,2013-09-16 21:35:00,
2013-09-16 17:38:00,73.3,64.9,29.90,NNW,336,0.0,1.0,75,0.00,,,0.00,30,Wunderground v.1.15,2013-09-16 21:38:00,
2013-09-16 17:39:00,73.4,65.0,29.90,NNW,336,0.0,1.0,75,0.00,,,0.00,40,Wunderground v.1.15,2013-09-16 21:39:00,
2013-09-16 17:40:00,73.3,64.9,29.90,NNW,336,0.0,1.0,75,0.00,,,0.00,37,Wunderground v.1.15,2013-09-16 21:40:00,
2013-09-16 17:41:00,73.3,64.9,29.90,NW,325,0.0,1.0,75,0.00,,,0.00,42,Wunderground v.1.15,2013-09-16 21:41:00,
2013-09-16 17:43:00,73.3,64.9,29.90,NW,325,0.0,1.0,75,0.00,,,0.00,26,Wunderground v.1.15,2013-09-16 21:43:00,
2013-09-16 17:44:00,73.3,64.9,29.90,NW,325,0.0,1.0,75,0.00,,,0.00,25,Wunderground v.1.15,2013-09-16 21:44:00,
2013-09-16 17:45:00,73.3,64.9,29.90,NW,325,0.0,1.0,75,0.00,,,0.00,23,Wunderground v.1.15,2013-09-16 21:45:00,
2013-09-16 17:46:00,73.3,64.9,29.90,NW,325,0.0,1.0,75,0.00,,,0.00,23,Wunderground v.1.15,2013-09-16 21:46:00,
2013-09-16 17:47:00,73.2,64.8,29.90,NW,325,0.0,1.0,75,0.00,,,0.00,23,Wunderground v.1.15,2013-09-16 21:47:00,
2013-09-16 17:50:00,73.1,64.7,29.90,NW,325,0.0,1.0,75,0.00,,,0.00,25,Wunderground v.1.15,2013-09-16 21:50:00,
2013-09-16 17:51:00,73.1,64.7,29.90,NW,325,0.0,1.0,75,0.00,,,0.00,23,Wunderground v.1.15,2013-09-16 21:51:00,
2013-09-16 17:55:00,73.0,64.6,29.90,NNW,333,0.0,1.0,75,0.00,,,0.00,28,Wunderground v.1.15,2013-09-16 21:55:00,
2013-09-16 17:56:00,73.0,64.6,29.90,NNW,333,0.0,1.0,75,0.00,,,0.00,26,Wunderground v.1.15,2013-09-16 21:56:00,
2013-09-16 17:57:00,73.0,64.6,29.90,NE,49,0.0,1.0,75,0.00,,,0.00,25,Wunderground v.1.15,2013-09-16 21:57:00,
2013-09-16 17:59:00,73.0,64.6,29.90,NNW,337,0.0,1.0,75,0.00,,,0.00,18,Wunderground v.1.15,2013-09-16 21:59:00,
2013-09-16 18:00:00,73.0,64.6,29.90,NNW,333,0.0,1.0,75,0.00,,,0.00,16,Wunderground v.1.15,2013-09-16 22:00:00,
2013-09-16 18:02:00,72.9,64.9,29.90,NNW,333,0.0,1.0,76,0.00,,,0.00,14,Wunderground v.1.15,2013-09-16 22:02:00,
2013-09-16 18:03:00,72.9,64.5,29.90,NNW,333,0.0,1.0,75,0.00,,,0.00,14,Wunderground v.1.15,2013-09-16 22:03:00,
2013-09-16 18:06:00,72.8,64.8,29.90,NNW,333,0.0,1.0,76,0.00,,,0.00,16,Wunderground v.1.15,2013-09-16 22:06:00,
2013-09-16 18:07:00,72.8,64.8,29.90,NNW,331,0.0,1.0,76,0.00,,,0.00,14,Wunderground v.1.15,2013-09-16 22:07:00,
2013-09-16 18:09:00,72.7,64.3,29.91,NNW,331,0.0,1.0,75,0.00,,,0.00,14,Wunderground v.1.15,2013-09-16 22:09:00,
2013-09-16 18:10:00,72.6,64.2,29.91,North,355,0.0,1.0,75,0.00,,,0.00,16,Wunderground v.1.15,2013-09-16 22:10:00,
2013-09-16 18:11:00,72.6,64.2,29.90,North,355,0.0,1.0,75,0.00,,,0.00,16,Wunderground v.1.15,2013-09-16 22:11:00,
2013-09-16 18:12:00,72.6,64.2,29.91,North,355,0.0,1.0,75,0.00,,,0.00,16,Wunderground v.1.15,2013-09-16 22:12:00,
2013-09-16 18:14:00,72.6,64.2,29.91,NE,40,0.0,1.0,75,0.00,,,0.00,16,Wunderground v.1.15,2013-09-16 22:14:00,
2013-09-16 18:15:00,72.6,64.2,29.91,NE,40,0.0,1.0,75,0.00,,,0.00,16,Wunderground v.1.15,2013-09-16 22:15:00,
2013-09-16 18:17:00,72.6,64.6,29.91,NE,40,0.0,1.0,76,0.00,,,0.00,11,Wunderground v.1.15,2013-09-16 22:17:00,
2013-09-16 18:19:00,72.6,64.6,29.91,NW,325,0.0,1.0,76,0.00,,,0.00,11,Wunderground v.1.15,2013-09-16 22:19:00,
2013-09-16 18:20:00,72.5,64.5,29.91,NW,325,0.0,1.0,76,0.00,,,0.00,9,Wunderground v.1.15,2013-09-16 22:20:00,
2013-09-16 18:21:00,72.5,64.5,29.91,NW,325,0.0,1.0,76,0.00,,,0.00,9,Wunderground v.1.15,2013-09-16 22:21:00,
2013-09-16 18:24:00,72.5,64.5,29.91,SSE,153,0.0,1.0,76,0.00,,,0.00,11,Wunderground v.1.15,2013-09-16 22:24:00,
2013-09-16 18:26:00,72.5,64.5,29.91,SSE,153,0.0,1.0,76,0.00,,,0.00,9,Wunderground v.1.15,2013-09-16 22:26:00,
2013-09-16 18:28:00,72.4,64.4,29.91,SSE,153,0.0,1.0,76,0.00,,,0.00,12,Wunderground v.1.15,2013-09-16 22:28:00,
2013-09-16 18:30:00,72.4,64.4,29.91,SSE,153,0.0,1.0,76,0.00,,,0.00,12,Wunderground v.1.15,2013-09-16 22:30:00,
2013-09-16 18:31:00,72.4,64.4,29.91,SSE,153,0.0,1.0,76,0.00,,,0.00,11,Wunderground v.1.15,2013-09-16 22:31:00,
2013-09-16 18:34:00,72.3,64.3,29.91,East,98,0.0,1.0,76,0.00,,,0.00,5,Wunderground v.1.15,2013-09-16 22:34:00,
2013-09-16 18:36:00,72.3,64.3,29.91,NNE,28,0.0,1.0,76,0.00,,,0.00,5,Wunderground v.1.15,2013-09-16 22:36:00,
2013-09-16 18:37:00,72.3,64.3,29.91,NNE,28,0.0,1.0,76,0.00,,,0.00,7,Wunderground v.1.15,2013-09-16 22:37:00,
2013-09-16 18:39:00,72.2,64.2,29.91,NNE,28,0.0,1.0,76,0.00,,,0.00,9,Wunderground v.1.15,2013-09-16 22:39:00,
2013-09-16 18:41:00,72.1,64.1,29.91,NNE,28,0.0,1.0,76,0.00,,,0.00,9,Wunderground v.1.15,2013-09-16 22:41:00,
2013-09-16 18:42:00,72.2,64.2,29.92,NNE,28,0.0,1.0,76,0.00,,,0.00,7,Wunderground v.1.15,2013-09-16 22:42:00,
2013-09-16 18:45:00,72.1,64.5,29.91,NNE,28,0.0,1.0,77,0.00,,,0.00,9,Wunderground v.1.15,2013-09-16 22:45:00,
2013-09-16 18:46:00,72.1,64.5,29.91,NNE,28,0.0,1.0,77,0.00,,,0.00,7,Wunderground v.1.15,2013-09-16 22:46:00,
2013-09-16 18:50:00,72.0,64.4,29.91,NNE,28,0.0,1.0,77,0.00,,,0.00,0,Wunderground v.1.15,2013-09-16 22:50:00,
2013-09-16 18:53:00,72.0,64.4,29.91,NNE,28,0.0,1.0,77,0.00,,,0.00,0,Wunderground v.1.15,2013-09-16 22:53:00,
2013-09-16 18:54:00,71.9,64.3,29.92,NNE,28,0.0,1.0,77,0.00,,,0.00,0,Wunderground v.1.15,2013-09-16 22:54:00,
2013-09-16 18:58:00,71.8,64.2,29.92,NNE,28,0.0,1.0,77,0.00,,,0.00,0,Wunderground v.1.15,2013-09-16 22:58:00,
2013-09-16 19:00:00,71.8,63.8,29.92,NNE,28,0.0,1.0,76,0.00,,,0.00,0,Wunderground v.1.15,2013-09-16 23:00:00,
2013-09-16 19:03:00,71.7,63.7,29.92,NNW,343,0.0,1.0,76,0.00,,,0.00,0,Wunderground v.1.15,2013-09-16 23:03:00,
2013-09-16 19:04:00,71.7,63.7,29.92,NNW,343,0.0,1.0,76,0.00,,,0.00,0,Wunderground v.1.15,2013-09-16 23:04:00,
2013-09-16 19:07:00,71.5,63.5,29.92,ENE,72,0.0,1.0,76,0.00,,,0.00,0,Wunderground v.1.15,2013-09-16 23:07:00,
2013-09-16 19:09:00,71.5,63.5,29.92,ENE,72,0.0,1.0,76,0.00,,,0.00,0,Wunderground v.1.15,2013-09-16 23:09:00,
2013-09-16 19:10:00,71.5,63.5,29.92,ENE,72,0.0,1.0,76,0.00,,,0.00,0,Wunderground v.1.15,2013-09-16 23:10:00,
2013-09-16 19:11:00,71.4,63.4,29.92,ENE,72,0.0,1.0,76,0.00,,,0.00,0,Wunderground v.1.15,2013-09-16 23:11:00,
2013-09-16 19:12:00,71.4,63.4,29.92,ENE,72,0.0,1.0,76,0.00,,,0.00,0,Wunderground v.1.15,2013-09-16 23:12:00,
2013-09-16 19:13:00,71.3,63.3,29.92,ENE,72,0.0,1.0,76,0.00,,,0.00,0,Wunderground v.1.15,2013-09-16 23:13:00,
2013-09-16 19:14:00,71.3,63.3,29.92,ENE,72,0.0,1.0,76,0.00,,,0.00,0,Wunderground v.1.15,2013-09-16 23:14:00,
2013-09-16 19:15:00,71.3,63.7,29.92,ENE,72,0.0,1.0,77,0.00,,,0.00,0,Wunderground v.1.15,2013-09-16 23:15:00,
2013-09-16 19:17:00,71.2,63.6,29.92,ENE,72,0.0,1.0,77,0.00,,,0.00,0,Wunderground v.1.15,2013-09-16 23:17:00,
2013-09-16 19:18:00,71.1,63.5,29.92,ENE,72,0.0,1.0,77,0.00,,,0.00,0,Wunderground v.1.15,2013-09-16 23:18:00,
2013-09-16 19:20:00,71.1,63.5,29.92,NE,44,0.0,1.0,77,0.00,,,0.00,0,Wunderground v.1.15,2013-09-16 23:20:00,
2013-09-16 19:21:00,71.0,63.4,29.93,NNE,24,0.0,1.0,77,0.00,,,0.00,0,Wunderground v.1.15,2013-09-16 23:21:00,
2013-09-16 19:23:00,70.8,63.2,29.93,NNE,24,0.0,1.0,77,0.00,,,0.00,0,Wunderground v.1.15,2013-09-16 23:23:00,
2013-09-16 19:24:00,70.8,63.2,29.93,NNE,24,0.0,1.0,77,0.00,,,0.00,0,Wunderground v.1.15,2013-09-16 23:24:00,
2013-09-16 19:25:00,70.8,63.2,29.93,NNE,24,0.0,1.0,77,0.00,,,0.00,0,Wunderground v.1.15,2013-09-16 23:25:00,
2013-09-16 19:28:00,70.6,63.0,29.93,NNE,25,0.0,1.0,77,0.00,,,0.00,0,Wunderground v.1.15,2013-09-16 23:28:00,
2013-09-16 19:29:00,70.5,62.9,29.93,NNE,15,0.0,1.0,77,0.00,,,0.00,0,Wunderground v.1.15,2013-09-16 23:29:00,
2013-09-16 19:30:00,70.5,62.6,29.93,NNE,19,0.0,1.0,76,0.00,,,0.00,0,Wunderground v.1.15,2013-09-16 23:30:00,
2013-09-16 19:32:00,70.3,62.4,29.93,NE,36,0.0,2.0,76,0.00,,,0.00,0,Wunderground v.1.15,2013-09-16 23:32:00,
2013-09-16 19:33:00,70.3,62.4,29.93,NE,53,0.0,2.0,76,0.00,,,0.00,0,Wunderground v.1.15,2013-09-16 23:33:00,
2013-09-16 19:36:00,70.1,62.2,29.93,NE,53,0.0,2.0,76,0.00,,,0.00,0,Wunderground v.1.15,2013-09-16 23:36:00,
2013-09-16 19:37:00,70.1,62.2,29.93,NE,53,0.0,2.0,76,0.00,,,0.00,0,Wunderground v.1.15,2013-09-16 23:37:00,
2013-09-16 19:38:00,70.0,62.1,29.93,North,5,0.0,2.0,76,0.00,,,0.00,0,Wunderground v.1.15,2013-09-16 23:38:00,
2013-09-16 19:42:00,69.9,62.0,29.94,NNW,339,0.0,1.0,76,0.00,,,0.00,0,Wunderground v.1.15,2013-09-16 23:42:00,
2013-09-16 19:43:00,69.9,62.0,29.94,NNW,334,0.0,1.0,76,0.00,,,0.00,0,Wunderground v.1.15,2013-09-16 23:43:00,
2013-09-16 19:44:00,69.8,61.9,29.94,NNW,334,0.0,1.0,76,0.00,,,0.00,0,Wunderground v.1.15,2013-09-16 23:44:00,
2013-09-16 19:45:00,69.8,61.9,29.94,NNW,334,0.0,1.0,76,0.00,,,0.00,0,Wunderground v.1.15,2013-09-16 23:45:00,
2013-09-16 19:47:00,69.7,61.8,29.94,NNW,335,0.0,1.0,76,0.00,,,0.00,0,Wunderground v.1.15,2013-09-16 23:47:00,
2013-09-16 19:48:00,69.7,61.8,29.94,NNW,335,0.0,1.0,76,0.00,,,0.00,0,Wunderground v.1.15,2013-09-16 23:48:00,
2013-09-16 19:51:00,69.6,61.7,29.94,NW,323,0.0,1.0,76,0.00,,,0.00,0,Wunderground v.1.15,2013-09-16 23:51:00,
2013-09-16 19:52:00,69.5,61.6,29.94,NNW,330,0.0,1.0,76,0.00,,,0.00,0,Wunderground v.1.15,2013-09-16 23:52:00,
2013-09-16 19:53:00,69.5,61.6,29.94,NNW,331,0.0,1.0,76,0.00,,,0.00,0,Wunderground v.1.15,2013-09-16 23:53:00,
2013-09-16 19:56:00,69.4,61.5,29.94,NNW,331,0.0,1.0,76,0.00,,,0.00,0,Wunderground v.1.15,2013-09-16 23:56:00,
2013-09-16 19:57:00,69.3,61.8,29.94,NNW,332,0.0,1.0,77,0.00,,,0.00,0,Wunderground v.1.15,2013-09-16 23:57:00,
2013-09-16 19:59:00,69.2,61.7,29.94,North,5,0.0,1.0,77,0.00,,,0.00,0,Wunderground v.1.15,2013-09-16 23:59:00,
2013-09-16 20:00:00,69.2,61.7,29.95,North,5,0.0,1.0,77,0.00,,,0.00,0,Wunderground v.1.15,2013-09-17 00:00:00,
2013-09-16 20:01:00,69.1,61.6,29.95,North,5,0.0,1.0,77,0.00,,,0.00,0,Wunderground v.1.15,2013-09-17 00:01:00,
2013-09-16 20:05:00,68.9,61.4,29.95,North,5,0.0,1.0,77,0.00,,,0.00,0,Wunderground v.1.15,2013-09-17 00:05:00,
2013-09-16 20:06:00,68.8,61.3,29.95,North,5,0.0,1.0,77,0.00,,,0.00,0,Wunderground v.1.15,2013-09-17 00:06:00,
2013-09-16 20:07:00,68.8,61.3,29.95,North,5,0.0,1.0,77,0.00,,,0.00,0,Wunderground v.1.15,2013-09-17 00:07:00,
2013-09-16 20:08:00,68.8,61.7,29.95,North,5,0.0,1.0,78,0.00,,,0.00,0,Wunderground v.1.15,2013-09-17 00:08:00,
2013-09-16 20:10:00,68.7,61.6,29.95,North,5,0.0,1.0,78,0.00,,,0.00,0,Wunderground v.1.15,2013-09-17 00:10:00,
2013-09-16 20:13:00,68.5,61.4,29.95,North,5,0.0,1.0,78,0.00,,,0.00,0,Wunderground v.1.15,2013-09-17 00:13:00,
2013-09-16 20:15:00,68.5,61.4,29.95,North,5,0.0,1.0,78,0.00,,,0.00,0,Wunderground v.1.15,2013-09-17 00:15:00,
2013-09-16 20:16:00,68.4,61.6,29.95,North,5,0.0,1.0,79,0.00,,,0.00,0,Wunderground v.1.15,2013-09-17 00:16:00,
2013-09-16 20:17:00,68.3,61.2,29.96,North,5,0.0,1.0,78,0.00,,,0.00,0,Wunderground v.1.15,2013-09-17 00:17:00,
2013-09-16 20:18:00,68.3,61.5,29.95,North,5,0.0,1.0,79,0.00,,,0.00,0,Wunderground v.1.15,2013-09-17 00:18:00,
2013-09-16 20:19:00,68.2,61.4,29.96,North,5,0.0,1.0,79,0.00,,,0.00,0,Wunderground v.1.15,2013-09-17 00:19:00,
2013-09-16 20:22:00,68.1,61.3,29.96,North,5,0.0,1.0,79,0.00,,,0.00,0,Wunderground v.1.15,2013-09-17 00:22:00,
2013-09-16 20:25:00,67.9,61.5,29.96,North,5,0.0,1.0,80,0.00,,,0.00,0,Wunderground v.1.15,2013-09-17 00:25:00,
2013-09-16 20:26:00,67.9,61.5,29.96,North,5,0.0,1.0,80,0.00,,,0.00,0,Wunderground v.1.15,2013-09-17 00:26:00,
2013-09-16 20:27:00,67.9,61.5,29.96,North,5,0.0,1.0,80,0.00,,,0.00,0,Wunderground v.1.15,2013-09-17 00:27:00,
2013-09-16 20:31:00,67.7,61.3,29.96,North,5,0.0,1.0,80,0.00,,,0.00,0,Wunderground v.1.15,2013-09-17 00:31:00,
2013-09-16 20:32:00,67.7,61.3,29.96,North,5,0.0,1.0,80,0.00,,,0.00,0,Wunderground v.1.15,2013-09-17 00:32:00,
2013-09-16 20:34:00,67.6,61.2,29.96,North,5,0.0,1.0,80,0.00,,,0.00,0,Wunderground v.1.15,2013-09-17 00:34:00,
2013-09-16 20:36:00,67.5,61.5,29.96,North,5,0.0,1.0,81,0.00,,,0.00,0,Wunderground v.1.15,2013-09-17 00:36:00,
2013-09-16 20:38:00,67.4,61.4,29.96,North,5,0.0,1.0,81,0.00,,,0.00,0,Wunderground v.1.15,2013-09-17 00:38:00,
2013-09-16 20:41:00,67.2,61.2,29.96,North,5,0.0,1.0,81,0.00,,,0.00,0,Wunderground v.1.15,2013-09-17 00:41:00,
2013-09-16 20:44:00,67.1,61.1,29.96,North,5,0.0,1.0,81,0.00,,,0.00,0,Wunderground v.1.15,2013-09-17 00:44:00,
2013-09-16 20:46:00,67.1,61.1,29.96,North,5,0.0,1.0,81,0.00,,,0.00,0,Wunderground v.1.15,2013-09-17 00:46:00,
2013-09-16 20:47:00,67.0,61.3,29.96,North,5,0.0,1.0,82,0.00,,,0.00,0,Wunderground v.1.15,2013-09-17 00:47:00,
2013-09-16 20:49:00,66.9,61.2,29.97,North,5,0.0,1.0,82,0.00,,,0.00,0,Wunderground v.1.15,2013-09-17 00:49:00,
2013-09-16 20:51:00,66.8,61.1,29.97,North,5,0.0,1.0,82,0.00,,,0.00,0,Wunderground v.1.15,2013-09-17 00:51:00,
2013-09-16 20:52:00,66.7,61.0,29.97,North,5,0.0,1.0,82,0.00,,,0.00,0,Wunderground v.1.15,2013-09-17 00:52:00,
2013-09-16 20:53:00,66.7,61.0,29.97,North,5,0.0,1.0,82,0.00,,,0.00,0,Wunderground v.1.15,2013-09-17 00:53:00,
2013-09-16 20:55:00,66.6,61.3,29.97,North,5,0.0,1.0,83,0.00,,,0.00,0,Wunderground v.1.15,2013-09-17 00:55:00,
2013-09-16 20:58:00,66.5,61.2,29.97,North,5,0.0,1.0,83,0.00,,,0.00,0,Wunderground v.1.15,2013-09-17 00:58:00,
2013-09-16 21:00:00,66.4,61.1,29.97,North,5,0.0,1.0,83,0.00,,,0.00,0,Wunderground v.1.15,2013-09-17 01:00:00,
2013-09-16 21:01:00,66.3,61.0,29.97,North,5,0.0,1.0,83,0.00,,,0.00,0,Wunderground v.1.15,2013-09-17 01:01:00,
2013-09-16 21:02:00,66.3,61.0,29.97,North,5,0.0,1.0,83,0.00,,,0.00,0,Wunderground v.1.15,2013-09-17 01:02:00,
2013-09-16 21:04:00,66.2,60.9,29.97,North,5,0.0,1.0,83,0.00,,,0.00,0,Wunderground v.1.15,2013-09-17 01:04:00,
2013-09-16 21:06:00,66.1,61.1,29.97,North,5,0.0,1.0,84,0.00,,,0.00,0,Wunderground v.1.15,2013-09-17 01:06:00,
2013-09-16 21:07:00,66.1,61.1,29.97,North,5,0.0,1.0,84,0.00,,,0.00,0,Wunderground v.1.15,2013-09-17 01:07:00,
2013-09-16 21:08:00,66.1,61.1,29.97,North,5,0.0,1.0,84,0.00,,,0.00,0,Wunderground v.1.15,2013-09-17 01:08:00,
2013-09-16 21:10:00,66.0,61.0,29.98,North,5,0.0,1.0,84,0.00,,,0.00,0,Wunderground v.1.15,2013-09-17 01:10:00,
2013-09-16 21:15:00,65.8,60.8,29.98,North,5,0.0,1.0,84,0.00,,,0.00,0,Wunderground v.1.15,2013-09-17 01:15:00,
2013-09-16 21:16:00,65.7,60.7,29.98,North,5,0.0,1.0,84,0.00,,,0.00,0,Wunderground v.1.15,2013-09-17 01:16:00,
2013-09-16 21:17:00,65.7,60.7,29.98,North,5,0.0,1.0,84,0.00,,,0.00,0,Wunderground v.1.15,2013-09-17 01:17:00,
2013-09-16 21:20:00,65.5,60.9,29.98,North,5,0.0,1.0,85,0.00,,,0.00,0,Wunderground v.1.15,2013-09-17 01:20:00,
2013-09-16 21:21:00,65.5,60.9,29.98,North,5,0.0,1.0,85,0.00,,,0.00,0,Wunderground v.1.15,2013-09-17 01:21:00,
2013-09-16 21:22:00,65.4,60.8,29.98,North,5,0.0,1.0,85,0.00,,,0.00,0,Wunderground v.1.15,2013-09-17 01:22:00,
2013-09-16 21:26:00,65.2,60.9,29.98,North,5,0.0,1.0,86,0.00,,,0.00,0,Wunderground v.1.15,2013-09-17 01:26:00,
2013-09-16 21:27:00,65.2,60.9,29.98,North,5,0.0,1.0,86,0.00,,,0.00,0,Wunderground v.1.15,2013-09-17 01:27:00,
2013-09-16 21:28:00,65.2,60.9,29.98,North,5,0.0,1.0,86,0.00,,,0.00,0,Wunderground v.1.15,2013-09-17 01:28:00,
2013-09-16 21:30:00,65.1,60.8,29.98,North,5,0.0,1.0,86,0.00,,,0.00,0,Wunderground v.1.15,2013-09-17 01:30:00,
2013-09-16 21:31:00,65.1,60.8,29.98,North,5,0.0,1.0,86,0.00,,,0.00,0,Wunderground v.1.15,2013-09-17 01:31:00,
2013-09-16 21:33:00,65.0,60.7,29.98,North,5,0.0,1.0,86,0.00,,,0.00,0,Wunderground v.1.15,2013-09-17 01:33:00,
2013-09-16 21:34:00,65.0,60.7,29.98,North,5,0.0,1.0,86,0.00,,,0.00,0,Wunderground v.1.15,2013-09-17 01:34:00,
2013-09-16 21:35:00,65.0,60.7,29.98,North,5,0.0,1.0,86,0.00,,,0.00,0,Wunderground v.1.15,2013-09-17 01:35:00,
2013-09-16 21:36:00,65.0,60.7,29.98,North,5,0.0,1.0,86,0.00,,,0.00,0,Wunderground v.1.15,2013-09-17 01:36:00,
2013-09-16 21:40:00,64.9,60.9,29.98,North,5,0.0,1.0,87,0.00,,,0.00,0,Wunderground v.1.15,2013-09-17 01:40:00,
2013-09-16 21:41:00,64.9,60.9,29.98,North,5,0.0,1.0,87,0.00,,,0.00,0,Wunderground v.1.15,2013-09-17 01:41:00,
2013-09-16 21:44:00,64.9,60.9,29.99,North,5,0.0,1.0,87,0.00,,,0.00,0,Wunderground v.1.15,2013-09-17 01:44:00,
2013-09-16 21:45:00,64.9,60.9,29.99,North,5,0.0,1.0,87,0.00,,,0.00,0,Wunderground v.1.15,2013-09-17 01:45:00,
2013-09-16 21:46:00,64.8,60.8,29.99,North,5,0.0,1.0,87,0.00,,,0.00,0,Wunderground v.1.15,2013-09-17 01:46:00,
2013-09-16 21:47:00,64.8,60.8,29.99,North,5,0.0,1.0,87,0.00,,,0.00,0,Wunderground v.1.15,2013-09-17 01:47:00,
2013-09-16 21:48:00,64.8,60.8,29.99,North,5,0.0,1.0,87,0.00,,,0.00,0,Wunderground v.1.15,2013-09-17 01:48:00,
2013-09-16 21:49:00,64.8,60.8,29.99,North,5,0.0,1.0,87,0.00,,,0.00,0,Wunderground v.1.15,2013-09-17 01:49:00,
2013-09-16 21:50:00,64.8,60.8,29.99,North,5,0.0,1.0,87,0.00,,,0.00,0,Wunderground v.1.15,2013-09-17 01:50:00,
2013-09-16 21:55:00,64.7,60.7,29.99,North,5,0.0,1.0,87,0.00,,,0.00,0,Wunderground v.1.15,2013-09-17 01:55:00,
2013-09-16 21:56:00,64.7,60.7,29.99,North,5,0.0,1.0,87,0.00,,,0.00,0,Wunderground v.1.15,2013-09-17 01:56:00,
2013-09-16 21:57:00,64.7,60.7,29.99,North,5,0.0,1.0,87,0.00,,,0.00,0,Wunderground v.1.15,2013-09-17 01:57:00,
2013-09-16 22:01:00,64.6,60.6,29.99,North,5,0.0,1.0,87,0.00,,,0.00,0,Wunderground v.1.15,2013-09-17 02:01:00,
2013-09-16 22:02:00,64.6,60.6,29.99,North,5,0.0,1.0,87,0.00,,,0.00,0,Wunderground v.1.15,2013-09-17 02:02:00,
2013-09-16 22:03:00,64.6,60.3,29.99,North,5,0.0,1.0,86,0.00,,,0.00,0,Wunderground v.1.15,2013-09-17 02:03:00,
2013-09-16 22:04:00,64.6,60.3,29.99,North,5,0.0,1.0,86,0.00,,,0.00,0,Wunderground v.1.15,2013-09-17 02:04:00,
2013-09-16 22:08:00,64.5,60.2,30.00,North,5,0.0,1.0,86,0.00,,,0.00,0,Wunderground v.1.15,2013-09-17 02:08:00,
2013-09-16 22:09:00,64.5,60.2,30.00,North,5,0.0,1.0,86,0.00,,,0.00,0,Wunderground v.1.15,2013-09-17 02:09:00,
2013-09-16 22:10:00,64.5,60.2,30.00,North,5,0.0,1.0,86,0.00,,,0.00,0,Wunderground v.1.15,2013-09-17 02:10:00,
2013-09-16 22:11:00,64.5,60.2,30.00,North,5,0.0,1.0,86,0.00,,,0.00,0,Wunderground v.1.15,2013-09-17 02:11:00,
2013-09-16 22:14:00,64.5,60.2,29.99,North,5,0.0,1.0,86,0.00,,,0.00,0,Wunderground v.1.15,2013-09-17 02:14:00,
2013-09-16 22:16:00,64.5,60.2,30.00,North,5,0.0,1.0,86,0.00,,,0.00,0,Wunderground v.1.15,2013-09-17 02:16:00,
2013-09-16 22:17:00,64.4,60.1,30.00,North,5,0.0,1.0,86,0.00,,,0.00,0,Wunderground v.1.15,2013-09-17 02:17:00,
2013-09-16 22:19:00,64.4,60.1,30.00,North,5,0.0,1.0,86,0.00,,,0.00,0,Wunderground v.1.15,2013-09-17 02:19:00,
2013-09-16 22:20:00,64.4,60.1,30.00,North,5,0.0,1.0,86,0.00,,,0.00,0,Wunderground v.1.15,2013-09-17 02:20:00,
2013-09-16 22:21:00,64.4,60.1,30.00,North,5,0.0,1.0,86,0.00,,,0.00,0,Wunderground v.1.15,2013-09-17 02:21:00,
2013-09-16 22:24:00,64.3,60.0,30.00,North,5,0.0,1.0,86,0.00,,,0.00,0,Wunderground v.1.15,2013-09-17 02:24:00,
2013-09-16 22:26:00,64.3,60.0,30.00,North,5,0.0,1.0,86,0.00,,,0.00,0,Wunderground v.1.15,2013-09-17 02:26:00,
2013-09-16 22:27:00,64.3,60.0,30.00,North,5,0.0,1.0,86,0.00,,,0.00,0,Wunderground v.1.15,2013-09-17 02:27:00,
2013-09-16 22:29:00,64.2,59.9,30.00,North,5,0.0,1.0,86,0.00,,,0.00,0,Wunderground v.1.15,2013-09-17 02:29:00,
2013-09-16 22:30:00,64.2,59.9,30.00,North,5,0.0,1.0,86,0.00,,,0.00,0,Wunderground v.1.15,2013-09-17 02:30:00,
2013-09-16 22:32:00,64.1,59.8,30.00,North,5,0.0,1.0,86,0.00,,,0.00,0,Wunderground v.1.15,2013-09-17 02:32:00,
2013-09-16 22:33:00,64.1,59.8,30.00,North,5,0.0,1.0,86,0.00,,,0.00,0,Wunderground v.1.15,2013-09-17 02:33:00,
2013-09-16 22:35:00,64.1,59.8,30.00,North,5,0.0,1.0,86,0.00,,,0.00,0,Wunderground v.1.15,2013-09-17 02:35:00,
2013-09-16 22:36:00,64.1,60.2,30.00,North,5,0.0,1.0,87,0.00,,,0.00,0,Wunderground v.1.15,2013-09-17 02:36:00,
2013-09-16 22:37:00,64.1,60.2,30.00,North,5,0.0,1.0,87,0.00,,,0.00,0,Wunderground v.1.15,2013-09-17 02:37:00,
2013-09-16 22:40:00,64.0,59.7,30.00,North,5,0.0,1.0,86,0.00,,,0.00,0,Wunderground v.1.15,2013-09-17 02:40:00,
2013-09-16 22:41:00,64.0,59.7,30.00,North,5,0.0,1.0,86,0.00,,,0.00,0,Wunderground v.1.15,2013-09-17 02:41:00,
2013-09-16 22:42:00,64.0,59.7,30.00,North,5,0.0,1.0,86,0.00,,,0.00,0,Wunderground v.1.15,2013-09-17 02:42:00,
2013-09-16 22:45:00,64.0,59.7,30.00,North,5,0.0,1.0,86,0.00,,,0.00,0,Wunderground v.1.15,2013-09-17 02:45:00,
2013-09-16 22:47:00,64.0,59.7,30.00,North,5,0.0,1.0,86,0.00,,,0.00,0,Wunderground v.1.15,2013-09-17 02:47:00,
2013-09-16 22:48:00,63.9,59.6,30.00,North,5,0.0,1.0,86,0.00,,,0.00,0,Wunderground v.1.15,2013-09-17 02:48:00,
2013-09-16 22:50:00,63.9,59.6,30.00,North,5,0.0,1.0,86,0.00,,,0.00,0,Wunderground v.1.15,2013-09-17 02:50:00,
2013-09-16 22:52:00,63.9,59.6,30.00,North,5,0.0,1.0,86,0.00,,,0.00,0,Wunderground v.1.15,2013-09-17 02:52:00,
2013-09-16 22:53:00,63.8,59.5,30.00,North,5,0.0,1.0,86,0.00,,,0.00,0,Wunderground v.1.15,2013-09-17 02:53:00,
2013-09-16 22:55:00,63.8,59.5,30.00,North,5,0.0,1.0,86,0.00,,,0.00,0,Wunderground v.1.15,2013-09-17 02:55:00,
2013-09-16 22:56:00,63.8,59.9,30.00,North,5,0.0,1.0,87,0.00,,,0.00,0,Wunderground v.1.15,2013-09-17 02:56:00,
2013-09-16 22:57:00,63.8,59.9,30.00,North,5,0.0,1.0,87,0.00,,,0.00,0,Wunderground v.1.15,2013-09-17 02:57:00,
2013-09-16 22:58:00,63.8,59.9,30.00,North,5,0.0,1.0,87,0.00,,,0.00,0,Wunderground v.1.15,2013-09-17 02:58:00,
2013-09-16 23:01:00,63.7,59.8,30.00,North,5,0.0,1.0,87,0.00,,,0.00,0,Wunderground v.1.15,2013-09-17 03:01:00,
2013-09-16 23:04:00,63.6,59.7,30.00,North,5,0.0,1.0,87,0.00,,,0.00,0,Wunderground v.1.15,2013-09-17 03:04:00,
2013-09-16 23:05:00,63.6,59.7,30.00,North,5,0.0,1.0,87,0.00,,,0.00,0,Wunderground v.1.15,2013-09-17 03:05:00,
2013-09-16 23:07:00,63.5,59.6,30.00,North,5,0.0,1.0,87,0.00,,,0.00,0,Wunderground v.1.15,2013-09-17 03:07:00,
2013-09-16 23:08:00,63.5,59.6,30.00,North,5,0.0,1.0,87,0.00,,,0.00,0,Wunderground v.1.15,2013-09-17 03:08:00,
2013-09-16 23:09:00,63.5,59.6,30.00,North,5,0.0,1.0,87,0.00,,,0.00,0,Wunderground v.1.15,2013-09-17 03:09:00,
2013-09-16 23:11:00,63.5,59.2,30.00,North,5,0.0,1.0,86,0.00,,,0.00,0,Wunderground v.1.15,2013-09-17 03:11:00,
2013-09-16 23:13:00,63.5,59.2,30.00,North,5,0.0,1.0,86,0.00,,,0.00,0,Wunderground v.1.15,2013-09-17 03:13:00,
2013-09-16 23:14:00,63.4,59.1,30.00,North,5,0.0,1.0,86,0.00,,,0.00,0,Wunderground v.1.15,2013-09-17 03:14:00,
2013-09-16 23:17:00,63.4,59.5,30.00,North,5,0.0,1.0,87,0.00,,,0.00,0,Wunderground v.1.15,2013-09-17 03:17:00,
2013-09-16 23:20:00,63.3,59.0,30.00,North,5,0.0,1.0,86,0.00,,,0.00,0,Wunderground v.1.15,2013-09-17 03:20:00,
2013-09-16 23:21:00,63.3,59.0,30.00,North,5,0.0,1.0,86,0.00,,,0.00,0,Wunderground v.1.15,2013-09-17 03:21:00,
2013-09-16 23:22:00,63.2,58.9,30.00,North,5,0.0,1.0,86,0.00,,,0.00,0,Wunderground v.1.15,2013-09-17 03:22:00,
2013-09-16 23:25:00,63.2,59.3,29.99,North,360,0.0,1.0,87,0.00,,,0.00,0,Wunderground v.1.15,2013-09-17 03:25:00,
2013-09-16 23:27:00,63.1,58.8,29.99,North,5,0.0,1.0,86,0.00,,,0.00,0,Wunderground v.1.15,2013-09-17 03:27:00,
2013-09-16 23:29:00,63.1,58.8,29.99,North,5,0.0,1.0,86,0.00,,,0.00,0,Wunderground v.1.15,2013-09-17 03:29:00,
2013-09-16 23:30:00,63.0,58.7,30.00,North,5,0.0,1.0,86,0.00,,,0.00,0,Wunderground v.1.15,2013-09-17 03:30:00,
2013-09-16 23:32:00,63.0,59.1,30.00,North,5,0.0,1.0,87,0.00,,,0.00,0,Wunderground v.1.15,2013-09-17 03:32:00,
2013-09-16 23:33:00,63.0,58.7,29.99,North,5,0.0,1.0,86,0.00,,,0.00,0,Wunderground v.1.15,2013-09-17 03:33:00,
2013-09-16 23:34:00,63.0,58.7,30.00,North,5,0.0,1.0,86,0.00,,,0.00,0,Wunderground v.1.15,2013-09-17 03:34:00,
2013-09-16 23:35:00,63.0,58.7,30.00,North,5,0.0,1.0,86,0.00,,,0.00,0,Wunderground v.1.15,2013-09-17 03:35:00,
2013-09-16 23:38:00,62.9,58.6,30.00,North,5,0.0,1.0,86,0.00,,,0.00,0,Wunderground v.1.15,2013-09-17 03:38:00,
2013-09-16 23:39:00,62.9,58.6,30.00,North,5,0.0,1.0,86,0.00,,,0.00,0,Wunderground v.1.15,2013-09-17 03:39:00,
2013-09-16 23:41:00,62.9,58.6,30.00,North,5,0.0,1.0,86,0.00,,,0.00,0,Wunderground v.1.15,2013-09-17 03:41:00,
2013-09-16 23:45:00,62.9,58.6,30.00,North,5,0.0,1.0,86,0.00,,,0.00,0,Wunderground v.1.15,2013-09-17 03:45:00,
2013-09-16 23:46:00,62.9,58.6,30.00,North,5,0.0,1.0,86,0.00,,,0.00,0,Wunderground v.1.15,2013-09-17 03:46:00,
2013-09-16 23:50:00,62.9,58.6,30.01,North,5,0.0,1.0,86,0.00,,,0.00,0,Wunderground v.1.15,2013-09-17 03:50:00,
2013-09-16 23:51:00,62.8,58.5,30.01,North,5,0.0,1.0,86,0.00,,,0.00,0,Wunderground v.1.15,2013-09-17 03:51:00,
2013-09-16 23:53:00,62.8,58.5,30.01,North,5,0.0,1.0,86,0.00,,,0.00,0,Wunderground v.1.15,2013-09-17 03:53:00,
2013-09-16 23:55:00,62.8,58.5,30.01,North,5,0.0,1.0,86,0.00,,,0.00,0,Wunderground v.1.15,2013-09-17 03:55:00,
2013-09-16 23:56:00,62.8,58.5,30.01,North,5,0.0,1.0,86,0.00,,,0.00,0,Wunderground v.1.15,2013-09-17 03:56:00,
2013-09-16 23:58:00,62.7,58.5,30.01,North,5,0.0,1.0,86,0.00,,,0.00,0,Wunderground v.1.15,2013-09-17 03:58:00,
2013-09-16 23:59:00,62.7,58.5,30.01,North,5,0.0,1.0,86,0.00,,,0.00,0,Wunderground v.1.15,2013-09-17 03:59:00,